Observation data for Goodnight on 02/15/2017      Previous  Date  Next       Current Mesonet Observations  Soil Data  Daily Summary Page  Observations in Plain Language
KGO1 150600Z 31009KT 02/M03 A3017 RMK A01 T00151026  RH  074%=      5-min Rain = 0
KGO1 150601Z 30010KT 01/M03 A3017 RMK A01 T00141026  RH  075%=      5-min Rain = 0
KGO1 150602Z 30010KT 01/M03 A3017 RMK A01 T00131026  RH  075%=      5-min Rain = 0
KGO1 150603Z 30011KT 01/M03 A3017 RMK A01 T00131027  RH  075%=      5-min Rain = 0
KGO1 150604Z 30010KT 01/M03 A3017 RMK A01 T00141026  RH  075%=      5-min Rain = 0
KGO1 150605Z 31010KT 01/M03 A3017 RMK A01 T00141026  RH  075%=      5-min Rain = 0
KGO1 150606Z 31010KT 01/M03 A3017 RMK A01 T00131026  RH  075%=      5-min Rain = 0
KGO1 150607Z 31011KT 01/M03 A3017 RMK A01 T00131026  RH  075%=      5-min Rain = 0
KGO1 150608Z 31010KT 01/M03 A3017 RMK A01 T00131026  RH  075%=      5-min Rain = 0
KGO1 150609Z 31010KT 01/M03 A3017 RMK A01 T00121027  RH  075%=      5-min Rain = 0
KGO1 150610Z 31011KT 01/M03 A3017 RMK A01 T00131027  RH  075%=      5-min Rain = 0
KGO1 150611Z 30010KT 01/M03 A3017 RMK A01 T00131026  RH  075%=      5-min Rain = 0
KGO1 150612Z 30011KT 01/M03 A3017 RMK A01 T00131027  RH  075%=      5-min Rain = 0
KGO1 150613Z 31010KT 01/M03 A3017 RMK A01 T00131026  RH  075%=      5-min Rain = 0
KGO1 150614Z 30010KT 01/M03 A3017 RMK A01 T00131026  RH  075%=      5-min Rain = 0
KGO1 150615Z 30010KT 01/M03 A3017 RMK A01 T00121026  RH  076%=      5-min Rain = 0
KGO1 150616Z 31011KT 01/M03 A3017 RMK A01 T00121026  RH  076%=      5-min Rain = 0
KGO1 150617Z 30010KT 01/M03 A3017 RMK A01 T00121026  RH  076%=      5-min Rain = 0
KGO1 150618Z 30011KT 01/M03 A3017 RMK A01 T00111026  RH  076%=      5-min Rain = 0
KGO1 150619Z 30010KT 01/M03 A3017 RMK A01 T00121026  RH  076%=      5-min Rain = 0
KGO1 150620Z 31010KT 01/M03 A3017 RMK A01 T00121026  RH  076%=      5-min Rain = 0
KGO1 150621Z 30010KT 01/M03 A3017 RMK A01 T00121026  RH  076%=      5-min Rain = 0
KGO1 150622Z 30010KT 01/M03 A3017 RMK A01 T00121026  RH  076%=      5-min Rain = 0
KGO1 150623Z 31010KT 01/M03 A3017 RMK A01 T00121026  RH  076%=      5-min Rain = 0
KGO1 150624Z 30010KT 01/M03 A3017 RMK A01 T00121026  RH  076%=      5-min Rain = 0
KGO1 150625Z 30010KT 01/M03 A3017 RMK A01 T00111026  RH  076%=      5-min Rain = 0
KGO1 150626Z 30010KT 01/M03 A3017 RMK A01 T00101026  RH  076%=      5-min Rain = 0
KGO1 150627Z 30010KT 01/M03 A3017 RMK A01 T00101026  RH  077%=      5-min Rain = 0
KGO1 150628Z 30010KT 01/M03 A3017 RMK A01 T00101027  RH  077%=      5-min Rain = 0
KGO1 150629Z 30010KT 01/M03 A3017 RMK A01 T00091027  RH  077%=      5-min Rain = 0
KGO1 150630Z 30009KT 01/M03 A3017 RMK A01 T00091026  RH  077%=      5-min Rain = 0
KGO1 150631Z 30009KT 01/M03 A3017 RMK A01 T00081027  RH  077%=      5-min Rain = 0
KGO1 150632Z 30009KT 01/M03 A3017 RMK A01 T00081026  RH  078%=      5-min Rain = 0
KGO1 150633Z 30009KT 01/M03 A3017 RMK A01 T00081026  RH  078%=      5-min Rain = 0
KGO1 150634Z 30010KT 01/M03 A3017 RMK A01 T00071027  RH  078%=      5-min Rain = 0
KGO1 150635Z 30010KT 01/M03 A3017 RMK A01 T00071027  RH  078%=      5-min Rain = 0
KGO1 150636Z 30010KT 01/M03 A3017 RMK A01 T00081027  RH  078%=      5-min Rain = 0
KGO1 150637Z 31009KT 01/M03 A3017 RMK A01 T00081027  RH  078%=      5-min Rain = 0
KGO1 150638Z 30008KT 01/M03 A3017 RMK A01 T00071027  RH  078%=      5-min Rain = 0
KGO1 150639Z 30009KT 01/M03 A3017 RMK A01 T00071027  RH  078%=      5-min Rain = 0
KGO1 150640Z 30009KT 01/M03 A3017 RMK A01 T00071026  RH  078%=      5-min Rain = 0
KGO1 150641Z 30009KT 01/M03 A3017 RMK A01 T00061027  RH  079%=      5-min Rain = 0
KGO1 150642Z 30009KT 01/M03 A3017 RMK A01 T00061027  RH  079%=      5-min Rain = 0
KGO1 150643Z 31009KT 01/M03 A3017 RMK A01 T00061027  RH  079%=      5-min Rain = 0
KGO1 150644Z 31009KT 01/M03 A3017 RMK A01 T00061027  RH  079%=      5-min Rain = 0
KGO1 150645Z 30009KT 01/M03 A3017 RMK A01 T00061027  RH  078%=      5-min Rain = 0
KGO1 150646Z 30010KT 01/M03 A3017 RMK A01 T00061027  RH  078%=      5-min Rain = 0
KGO1 150647Z 30010KT 01/M03 A3017 RMK A01 T00061027  RH  078%=      5-min Rain = 0
KGO1 150648Z 30010KT 01/M03 A3017 RMK A01 T00061028  RH  078%=      5-min Rain = 0
KGO1 150649Z 30010KT 01/M03 A3017 RMK A01 T00071027  RH  078%=      5-min Rain = 0
KGO1 150650Z 30009KT 01/M03 A3017 RMK A01 T00071027  RH  078%=      5-min Rain = 0
KGO1 150651Z 30010KT 01/M03 A3017 RMK A01 T00071027  RH  078%=      5-min Rain = 0
KGO1 150652Z 30010KT 01/M03 A3017 RMK A01 T00081027  RH  078%=      5-min Rain = 0
KGO1 150653Z 31009KT 01/M03 A3017 RMK A01 T00081027  RH  078%=      5-min Rain = 0
KGO1 150654Z 31010KT 01/M03 A3017 RMK A01 T00081027  RH  078%=      5-min Rain = 0
KGO1 150655Z 31010KT 01/M03 A3017 RMK A01 T00081027  RH  077%=      5-min Rain = 0
KGO1 150656Z 30010KT 01/M03 A3018 RMK A01 T00081027  RH  077%=      5-min Rain = 0
KGO1 150657Z 30010KT 01/M03 A3018 RMK A01 T00081027  RH  077%=      5-min Rain = 0
KGO1 150658Z 30009KT 01/M03 A3018 RMK A01 T00091027  RH  077%=      5-min Rain = 0
KGO1 150659Z 30009KT 01/M03 A3017 RMK A01 T00091027  RH  077%=      5-min Rain = 0
KGO1 150700Z 31009KT 01/M03 A3017 RMK A01 T00091027  RH  077%=      5-min Rain = 0
KGO1 150701Z 30009KT 01/M03 A3018 RMK A01 T00091027  RH  077%=      5-min Rain = 0
KGO1 150702Z 30009KT 01/M03 A3018 RMK A01 T00091027  RH  077%=      5-min Rain = 0
KGO1 150703Z 30010KT 01/M03 A3018 RMK A01 T00091027  RH  077%=      5-min Rain = 0
KGO1 150704Z 30010KT 01/M03 A3018 RMK A01 T00091027  RH  076%=      5-min Rain = 0
KGO1 150705Z 30009KT 01/M03 A3018 RMK A01 T00101028  RH  076%=      5-min Rain = 0
KGO1 150706Z 30009KT 01/M03 A3018 RMK A01 T00101027  RH  076%=      5-min Rain = 0
KGO1 150707Z 30008KT 01/M03 A3018 RMK A01 T00091028  RH  077%=      5-min Rain = 0
KGO1 150708Z 29008KT 01/M03 A3018 RMK A01 T00071028  RH  077%=      5-min Rain = 0
KGO1 150709Z 30008KT 01/M03 A3018 RMK A01 T00051029  RH  078%=      5-min Rain = 0
KGO1 150710Z 29009KT 00/M03 A3018 RMK A01 T00031029  RH  079%=      5-min Rain = 0
KGO1 150711Z 29009KT 00/M03 A3018 RMK A01 T00021029  RH  080%=      5-min Rain = 0
KGO1 150712Z 29010KT 00/M03 A3018 RMK A01 T00011029  RH  080%=      5-min Rain = 0
KGO1 150713Z 29010KT 00/03 A3018 RMK A01 T00-00-29  RH  081%=      5-min Rain = 0
KGO1 150714Z 29010KT M00/M03 A3018 RMK A01 T10011029  RH  081%=      5-min Rain = 0
KGO1 150715Z 29010KT M00/M03 A3018 RMK A01 T10011029  RH  082%=      5-min Rain = 0
KGO1 150716Z 30010KT M00/M03 A3018 RMK A01 T10021029  RH  082%=      5-min Rain = 0
KGO1 150717Z 29011KT M00/M03 A3018 RMK A01 T10021029  RH  082%=      5-min Rain = 0
KGO1 150718Z 30010KT M00/M03 A3018 RMK A01 T10011029  RH  082%=      5-min Rain = 0
KGO1 150719Z 30009KT M00/M03 A3018 RMK A01 T10011029  RH  081%=      5-min Rain = 0
KGO1 150720Z 30010KT 00/03 A3018 RMK A01 T00-00-29  RH  081%=      5-min Rain = 0
KGO1 150721Z 30010KT 00/M03 A3018 RMK A01 T00011029  RH  081%=      5-min Rain = 0
KGO1 150722Z 30010KT 00/M03 A3018 RMK A01 T00021028  RH  080%=      5-min Rain = 0
KGO1 150723Z 30010KT 00/M03 A3018 RMK A01 T00021028  RH  080%=      5-min Rain = 0
KGO1 150724Z 30010KT 00/M03 A3018 RMK A01 T00021029  RH  080%=      5-min Rain = 0
KGO1 150725Z 30010KT 00/M03 A3018 RMK A01 T00031029  RH  079%=      5-min Rain = 0
KGO1 150726Z 30010KT 00/M03 A3018 RMK A01 T00031029  RH  079%=      5-min Rain = 0
KGO1 150727Z 30010KT 00/M03 A3018 RMK A01 T00041029  RH  079%=      5-min Rain = 0
KGO1 150728Z 30010KT 00/M03 A3018 RMK A01 T00041029  RH  078%=      5-min Rain = 0
KGO1 150729Z 30011KT 01/M03 A3018 RMK A01 T00051029  RH  078%=      5-min Rain = 0
KGO1 150730Z 30011KT 01/M03 A3018 RMK A01 T00051029  RH  078%=      5-min Rain = 0
KGO1 150731Z 30011KT 01/M03 A3018 RMK A01 T00071029  RH  077%=      5-min Rain = 0
KGO1 150732Z 30011KT 01/M03 A3018 RMK A01 T00071029  RH  077%=      5-min Rain = 0
KGO1 150733Z 30010KT 01/M03 A3018 RMK A01 T00061029  RH  077%=      5-min Rain = 0
KGO1 150734Z 30010KT 01/M03 A3018 RMK A01 T00061029  RH  077%=      5-min Rain = 0
KGO1 150735Z 30010KT 01/M03 A3018 RMK A01 T00071029  RH  077%=      5-min Rain = 0
KGO1 150736Z 30009KT 01/M03 A3018 RMK A01 T00061029  RH  077%=      5-min Rain = 0
KGO1 150737Z 30010KT 01/M03 A3018 RMK A01 T00061029  RH  077%=      5-min Rain = 0
KGO1 150738Z 30010KT 01/M03 A3018 RMK A01 T00061029  RH  077%=      5-min Rain = 0
KGO1 150739Z 30010KT 01/M03 A3018 RMK A01 T00051030  RH  077%=      5-min Rain = 0
KGO1 150740Z 30009KT 01/M03 A3018 RMK A01 T00051030  RH  077%=      5-min Rain = 0
KGO1 150741Z 29009KT 00/M03 A3018 RMK A01 T00041030  RH  078%=      5-min Rain = 0
KGO1 150742Z 29009KT 00/M03 A3018 RMK A01 T00031031  RH  078%=      5-min Rain = 0
KGO1 150743Z 29009KT 00/M03 A3018 RMK A01 T00011031  RH  079%=      5-min Rain = 0
KGO1 150744Z 28007KT 00/03 A3018 RMK A01 T00000-31  RH  080%=      5-min Rain = 0
KGO1 150745Z 28007KT M00/M03 A3018 RMK A01 T10021031  RH  081%=      5-min Rain = 0
KGO1 150746Z 28007KT M01/M03 A3018 RMK A01 T10071033  RH  083%=      5-min Rain = 0
KGO1 150747Z 28008KT M01/M03 A3018 RMK A01 T10111034  RH  084%=      5-min Rain = 0
KGO1 150748Z 28008KT M01/M03 A3018 RMK A01 T10131034  RH  086%=      5-min Rain = 0
KGO1 150749Z 27008KT M02/M03 A3018 RMK A01 T10151033  RH  087%=      5-min Rain = 0
KGO1 150750Z 27008KT M02/M03 A3018 RMK A01 T10151033  RH  088%=      5-min Rain = 0
KGO1 150751Z 28008KT M02/M03 A3018 RMK A01 T10161032  RH  088%=      5-min Rain = 0
KGO1 150752Z 28009KT M02/M03 A3018 RMK A01 T10151032  RH  089%=      5-min Rain = 0
KGO1 150753Z 28009KT M02/M03 A3018 RMK A01 T10151031  RH  089%=      5-min Rain = 0
KGO1 150754Z 28009KT M02/M03 A3018 RMK A01 T10151031  RH  089%=      5-min Rain = 0
KGO1 150755Z 28009KT M02/M03 A3018 RMK A01 T10151031  RH  089%=      5-min Rain = 0
KGO1 150756Z 28009KT M02/M03 A3018 RMK A01 T10151031  RH  089%=      5-min Rain = 0
KGO1 150757Z 28009KT M02/M03 A3018 RMK A01 T10151031  RH  089%=      5-min Rain = 0
KGO1 150758Z 28008KT M01/M03 A3018 RMK A01 T10141030  RH  089%=      5-min Rain = 0
KGO1 150759Z 28008KT M01/M03 A3018 RMK A01 T10141031  RH  089%=      5-min Rain = 0
KGO1 150800Z 28009KT M01/M03 A3018 RMK A01 T10141030  RH  089%=      5-min Rain = 0
KGO1 150801Z 28009KT M01/M03 A3018 RMK A01 T10131030  RH  089%=      5-min Rain = 0
KGO1 150802Z 28008KT M01/M03 A3018 RMK A01 T10131030  RH  088%=      5-min Rain = 0
KGO1 150803Z 29009KT M01/M03 A3018 RMK A01 T10131030  RH  088%=      5-min Rain = 0
KGO1 150804Z 29009KT M01/M03 A3018 RMK A01 T10131030  RH  088%=      5-min Rain = 0
KGO1 150805Z 29009KT M01/M03 A3018 RMK A01 T10131030  RH  088%=      5-min Rain = 0
KGO1 150806Z 28009KT M01/M03 A3018 RMK A01 T10131030  RH  088%=      5-min Rain = 0
KGO1 150807Z 29009KT M01/M03 A3018 RMK A01 T10131031  RH  088%=      5-min Rain = 0
KGO1 150808Z 28009KT M01/M03 A3019 RMK A01 T10131031  RH  088%=      5-min Rain = 0
KGO1 150809Z 28009KT M01/M03 A3019 RMK A01 T10131031  RH  088%=      5-min Rain = 0
KGO1 150810Z 29009KT M01/M03 A3019 RMK A01 T10131031  RH  088%=      5-min Rain = 0
KGO1 150811Z 29008KT M01/M03 A3019 RMK A01 T10131031  RH  088%=      5-min Rain = 0
KGO1 150812Z 29008KT M01/M03 A3019 RMK A01 T10131031  RH  088%=      5-min Rain = 0
KGO1 150813Z 29008KT M01/M03 A3019 RMK A01 T10141031  RH  088%=      5-min Rain = 0
KGO1 150814Z 29009KT M01/M03 A3019 RMK A01 T10141031  RH  088%=      5-min Rain = 0
KGO1 150815Z 29008KT M01/M03 A3019 RMK A01 T10131031  RH  088%=      5-min Rain = 0
KGO1 150816Z 29007KT M01/M03 A3019 RMK A01 T10131031  RH  088%=      5-min Rain = 0
KGO1 150817Z 30006KT M01/M03 A3019 RMK A01 T10131032  RH  087%=      5-min Rain = 0
KGO1 150818Z 30006KT M01/M03 A3019 RMK A01 T10131032  RH  087%=      5-min Rain = 0
KGO1 150819Z 29006KT M01/M03 A3019 RMK A01 T10131033  RH  087%=      5-min Rain = 0
KGO1 150820Z 30006KT M01/M03 A3019 RMK A01 T10141033  RH  087%=      5-min Rain = 0
KGO1 150821Z 30006KT M01/M03 A3019 RMK A01 T10141033  RH  087%=      5-min Rain = 0
KGO1 150822Z 30006KT M02/M03 A3019 RMK A01 T10151033  RH  087%=      5-min Rain = 0
KGO1 150823Z 29006KT M02/M03 A3019 RMK A01 T10151033  RH  087%=      5-min Rain = 0
KGO1 150824Z 29006KT M01/M03 A3019 RMK A01 T10141033  RH  087%=      5-min Rain = 0
KGO1 150825Z 29006KT M01/M03 A3019 RMK A01 T10141033  RH  087%=      5-min Rain = 0
KGO1 150826Z 29006KT M01/M03 A3019 RMK A01 T10141033  RH  087%=      5-min Rain = 0
KGO1 150827Z 29006KT M01/M03 A3019 RMK A01 T10131032  RH  087%=      5-min Rain = 0
KGO1 150828Z 29006KT M01/M03 A3019 RMK A01 T10141033  RH  087%=      5-min Rain = 0
KGO1 150829Z 29006KT M01/M03 A3019 RMK A01 T10141033  RH  087%=      5-min Rain = 0
KGO1 150830Z 29006KT M01/M03 A3019 RMK A01 T10141033  RH  087%=      5-min Rain = 0
KGO1 150831Z 29006KT M02/M03 A3019 RMK A01 T10151034  RH  087%=      5-min Rain = 0
KGO1 150832Z 29007KT M02/M03 A3019 RMK A01 T10151034  RH  087%=      5-min Rain = 0
KGO1 150833Z 29007KT M02/M03 A3019 RMK A01 T10161034  RH  088%=      5-min Rain = 0
KGO1 150834Z 29007KT M02/M03 A3019 RMK A01 T10161034  RH  088%=      5-min Rain = 0
KGO1 150835Z 29006KT M02/M03 A3019 RMK A01 T10171034  RH  088%=      5-min Rain = 0
KGO1 150836Z 29007KT M02/M03 A3019 RMK A01 T10161034  RH  088%=      5-min Rain = 0
KGO1 150837Z 28007KT M02/M03 A3019 RMK A01 T10161034  RH  088%=      5-min Rain = 0
KGO1 150838Z 29007KT M02/M03 A3019 RMK A01 T10161033  RH  088%=      5-min Rain = 0
KGO1 150839Z 28007KT M02/M03 A3019 RMK A01 T10161033  RH  088%=      5-min Rain = 0
KGO1 150840Z 29007KT M02/M03 A3019 RMK A01 T10161033  RH  088%=      5-min Rain = 0
KGO1 150841Z 28007KT M02/M03 A3019 RMK A01 T10161033  RH  088%=      5-min Rain = 0
KGO1 150842Z 29006KT M02/M03 A3019 RMK A01 T10161033  RH  088%=      5-min Rain = 0
KGO1 150843Z 29006KT M02/M03 A3019 RMK A01 T10161033  RH  088%=      5-min Rain = 0
KGO1 150844Z 29006KT M02/M03 A3019 RMK A01 T10161034  RH  088%=      5-min Rain = 0
KGO1 150845Z 29006KT M02/M03 A3019 RMK A01 T10171034  RH  088%=      5-min Rain = 0
KGO1 150846Z 30005KT M02/M03 A3019 RMK A01 T10171034  RH  088%=      5-min Rain = 0
KGO1 150847Z 29006KT M02/M04 A3019 RMK A01 T10181035  RH  088%=      5-min Rain = 0
KGO1 150848Z 29006KT M02/M04 A3019 RMK A01 T10181035  RH  088%=      5-min Rain = 0
KGO1 150849Z 29007KT M02/M04 A3019 RMK A01 T10191035  RH  089%=      5-min Rain = 0
KGO1 150850Z 29007KT M02/M04 A3019 RMK A01 T10191035  RH  089%=      5-min Rain = 0
KGO1 150851Z 29008KT M02/M04 A3019 RMK A01 T10191035  RH  089%=      5-min Rain = 0
KGO1 150852Z 29008KT M02/M04 A3019 RMK A01 T10191035  RH  089%=      5-min Rain = 0
KGO1 150853Z 29009KT M02/M04 A3019 RMK A01 T10181035  RH  089%=      5-min Rain = 0
KGO1 150854Z 29009KT M02/M03 A3019 RMK A01 T10171034  RH  088%=      5-min Rain = 0
KGO1 150855Z 29009KT M02/M03 A3019 RMK A01 T10161034  RH  088%=      5-min Rain = 0
KGO1 150856Z 29009KT M02/M03 A3019 RMK A01 T10161034  RH  087%=      5-min Rain = 0
KGO1 150857Z 29010KT M02/M03 A3019 RMK A01 T10151034  RH  087%=      5-min Rain = 0
KGO1 150858Z 30010KT M01/M03 A3019 RMK A01 T10131033  RH  086%=      5-min Rain = 0
KGO1 150859Z 30010KT M01/M03 A3019 RMK A01 T10121033  RH  086%=      5-min Rain = 0
KGO1 150900Z 29010KT M01/M03 A3019 RMK A01 T10111033  RH  086%=      5-min Rain = 0
KGO1 150901Z 30010KT M01/M03 A3019 RMK A01 T10101032  RH  085%=      5-min Rain = 0
KGO1 150902Z 30010KT M01/M03 A3019 RMK A01 T10091032  RH  084%=      5-min Rain = 0
KGO1 150903Z 30009KT M01/M03 A3019 RMK A01 T10081032  RH  084%=      5-min Rain = 0
KGO1 150904Z 29010KT M01/M03 A3019 RMK A01 T10091033  RH  084%=      5-min Rain = 0
KGO1 150905Z 29009KT M01/M03 A3019 RMK A01 T10081033  RH  084%=      5-min Rain = 0
KGO1 150906Z 29009KT M01/M03 A3019 RMK A01 T10081033  RH  083%=      5-min Rain = 0
KGO1 150907Z 29010KT M01/M03 A3019 RMK A01 T10091033  RH  083%=      5-min Rain = 0
KGO1 150908Z 30010KT M01/M03 A3019 RMK A01 T10081033  RH  083%=      5-min Rain = 0
KGO1 150909Z 30010KT M01/M03 A3019 RMK A01 T10091034  RH  083%=      5-min Rain = 0
KGO1 150910Z 30009KT M01/M03 A3019 RMK A01 T10081033  RH  083%=      5-min Rain = 0
KGO1 150911Z 30010KT M01/M03 A3019 RMK A01 T10081033  RH  083%=      5-min Rain = 0
KGO1 150912Z 30009KT M01/M03 A3019 RMK A01 T10081033  RH  083%=      5-min Rain = 0
KGO1 150913Z 30009KT M01/M03 A3019 RMK A01 T10091033  RH  083%=      5-min Rain = 0
KGO1 150914Z 30009KT M01/M03 A3019 RMK A01 T10081033  RH  083%=      5-min Rain = 0
KGO1 150915Z 30009KT M01/M03 A3019 RMK A01 T10081032  RH  083%=      5-min Rain = 0
KGO1 150916Z 30010KT M01/M03 A3019 RMK A01 T10081033  RH  083%=      5-min Rain = 0
KGO1 150917Z 30010KT M01/M03 A3019 RMK A01 T10081033  RH  083%=      5-min Rain = 0
KGO1 150918Z 30009KT M01/M03 A3019 RMK A01 T10071033  RH  083%=      5-min Rain = 0
KGO1 150919Z 30009KT M01/M03 A3019 RMK A01 T10071033  RH  083%=      5-min Rain = 0
KGO1 150920Z 30010KT M01/M03 A3019 RMK A01 T10081033  RH  083%=      5-min Rain = 0
KGO1 150921Z 30009KT M01/M03 A3019 RMK A01 T10071033  RH  083%=      5-min Rain = 0
KGO1 150922Z 30009KT M01/M03 A3019 RMK A01 T10071033  RH  083%=      5-min Rain = 0
KGO1 150923Z 30009KT M01/M03 A3019 RMK A01 T10071033  RH  083%=      5-min Rain = 0
KGO1 150924Z 30009KT M01/M03 A3019 RMK A01 T10071033  RH  083%=      5-min Rain = 0
KGO1 150925Z 30009KT M01/M03 A3019 RMK A01 T10081033  RH  083%=      5-min Rain = 0
KGO1 150926Z 30009KT M01/M03 A3019 RMK A01 T10081034  RH  083%=      5-min Rain = 0
KGO1 150927Z 30009KT M01/M03 A3019 RMK A01 T10091034  RH  083%=      5-min Rain = 0
KGO1 150928Z 30009KT M01/M03 A3019 RMK A01 T10091034  RH  083%=      5-min Rain = 0
KGO1 150929Z 30009KT M01/M03 A3019 RMK A01 T10091034  RH  083%=      5-min Rain = 0
KGO1 150930Z 30009KT M01/M03 A3019 RMK A01 T10091034  RH  083%=      5-min Rain = 0
KGO1 150931Z 30009KT M01/M03 A3019 RMK A01 T10101034  RH  084%=      5-min Rain = 0
KGO1 150932Z 30009KT M01/M03 A3019 RMK A01 T10101034  RH  084%=      5-min Rain = 0
KGO1 150933Z 30009KT M01/M03 A3019 RMK A01 T10101034  RH  084%=      5-min Rain = 0
KGO1 150934Z 30009KT M01/M03 A3019 RMK A01 T10101034  RH  084%=      5-min Rain = 0
KGO1 150935Z 30009KT M01/M03 A3019 RMK A01 T10101034  RH  084%=      5-min Rain = 0
KGO1 150936Z 30008KT M01/M03 A3019 RMK A01 T10101034  RH  084%=      5-min Rain = 0
KGO1 150937Z 30008KT M01/M03 A3019 RMK A01 T10101034  RH  084%=      5-min Rain = 0
KGO1 150938Z 30009KT M01/M04 A3019 RMK A01 T10101035  RH  084%=      5-min Rain = 0
KGO1 150939Z 30009KT M01/M04 A302 RMK A01 T10111035  RH  084%=      5-min Rain = 0
KGO1 150940Z 30009KT M01/M04 A302 RMK A01 T10111035  RH  084%=      5-min Rain = 0
KGO1 150941Z 30008KT M01/M04 A302 RMK A01 T10111035  RH  084%=      5-min Rain = 0
KGO1 150942Z 30008KT M01/M04 A302 RMK A01 T10111035  RH  084%=      5-min Rain = 0
KGO1 150943Z 30009KT M01/M04 A302 RMK A01 T10111035  RH  084%=      5-min Rain = 0
KGO1 150944Z 30009KT M01/M04 A302 RMK A01 T10111035  RH  084%=      5-min Rain = 0
KGO1 150945Z 30009KT M01/M04 A302 RMK A01 T10121035  RH  084%=      5-min Rain = 0
KGO1 150946Z 30008KT M01/M04 A302 RMK A01 T10121035  RH  084%=      5-min Rain = 0
KGO1 150947Z 30008KT M01/M04 A302 RMK A01 T10121035  RH  084%=      5-min Rain = 0
KGO1 150948Z 30008KT M01/M04 A302 RMK A01 T10131036  RH  084%=      5-min Rain = 0
KGO1 150949Z 30008KT M01/M04 A302 RMK A01 T10131036  RH  084%=      5-min Rain = 0
KGO1 150950Z 30008KT M01/M04 A302 RMK A01 T10131036  RH  085%=      5-min Rain = 0
KGO1 150951Z 30008KT M01/M04 A302 RMK A01 T10131036  RH  085%=      5-min Rain = 0
KGO1 150952Z 30008KT M01/M04 A302 RMK A01 T10141036  RH  085%=      5-min Rain = 0
KGO1 150953Z 30008KT M01/M04 A302 RMK A01 T10131036  RH  085%=      5-min Rain = 0
KGO1 150954Z 30008KT M01/M04 A302 RMK A01 T10141036  RH  085%=      5-min Rain = 0
KGO1 150955Z 30008KT M01/M04 A302 RMK A01 T10141036  RH  085%=      5-min Rain = 0
KGO1 150956Z 30009KT M01/M04 A302 RMK A01 T10141037  RH  085%=      5-min Rain = 0
KGO1 150957Z 30008KT M01/M04 A302 RMK A01 T10141036  RH  085%=      5-min Rain = 0
KGO1 150958Z 30008KT M01/M04 A302 RMK A01 T10141036  RH  085%=      5-min Rain = 0
KGO1 150959Z 30008KT M01/M04 A302 RMK A01 T10131036  RH  085%=      5-min Rain = 0
KGO1 151000Z 30008KT M01/M04 A302 RMK A01 T10141036  RH  084%=      5-min Rain = 0
KGO1 151001Z 30008KT M01/M04 A302 RMK A01 T10141037  RH  085%=      5-min Rain = 0
KGO1 151002Z 30008KT M01/M04 A302 RMK A01 T10141037  RH  085%=      5-min Rain = 0
KGO1 151003Z 30008KT M01/M04 A302 RMK A01 T10141037  RH  084%=      5-min Rain = 0
KGO1 151004Z 30008KT M01/M04 A302 RMK A01 T10131036  RH  084%=      5-min Rain = 0
KGO1 151005Z 30008KT M01/M04 A302 RMK A01 T10141037  RH  084%=      5-min Rain = 0
KGO1 151006Z 30008KT M01/M04 A302 RMK A01 T10141036  RH  085%=      5-min Rain = 0
KGO1 151007Z 30008KT M01/M04 A302 RMK A01 T10141036  RH  085%=      5-min Rain = 0
KGO1 151008Z 30009KT M01/M04 A302 RMK A01 T10131036  RH  085%=      5-min Rain = 0
KGO1 151009Z 30009KT M01/M04 A302 RMK A01 T10131036  RH  085%=      5-min Rain = 0
KGO1 151010Z 30008KT M01/M04 A3021 RMK A01 T10131036  RH  085%=      5-min Rain = 0
KGO1 151011Z 30009KT M01/M04 A3021 RMK A01 T10141036  RH  085%=      5-min Rain = 0
KGO1 151012Z 30008KT M01/M04 A3021 RMK A01 T10141036  RH  085%=      5-min Rain = 0
KGO1 151013Z 30008KT M01/M04 A3021 RMK A01 T10141037  RH  085%=      5-min Rain = 0
KGO1 151014Z 30008KT M01/M04 A3021 RMK A01 T10141037  RH  084%=      5-min Rain = 0
KGO1 151015Z 30009KT M01/M04 A3021 RMK A01 T10131036  RH  084%=      5-min Rain = 0
KGO1 151016Z 30009KT M01/M04 A3021 RMK A01 T10131036  RH  085%=      5-min Rain = 0
KGO1 151017Z 30008KT M01/M04 A3021 RMK A01 T10141037  RH  084%=      5-min Rain = 0
KGO1 151018Z 30008KT M01/M04 A3021 RMK A01 T10131036  RH  084%=      5-min Rain = 0
KGO1 151019Z 30007KT M01/M04 A3021 RMK A01 T10131036  RH  084%=      5-min Rain = 0
KGO1 151020Z 30008KT M01/M04 A3021 RMK A01 T10141037  RH  084%=      5-min Rain = 0
KGO1 151021Z 30007KT M01/M04 A3021 RMK A01 T10141037  RH  085%=      5-min Rain = 0
KGO1 151022Z 30007KT M02/M04 A3021 RMK A01 T10151037  RH  085%=      5-min Rain = 0
KGO1 151023Z 30007KT M02/M04 A3021 RMK A01 T10151037  RH  085%=      5-min Rain = 0
KGO1 151024Z 31008KT M02/M04 A3021 RMK A01 T10151037  RH  085%=      5-min Rain = 0
KGO1 151025Z 30008KT M02/M04 A3021 RMK A01 T10151037  RH  085%=      5-min Rain = 0
KGO1 151026Z 31008KT M02/M04 A3021 RMK A01 T10151037  RH  085%=      5-min Rain = 0
KGO1 151027Z 31007KT M02/M04 A3021 RMK A01 T10151037  RH  085%=      5-min Rain = 0
KGO1 151028Z 31007KT M01/M04 A3021 RMK A01 T10141037  RH  085%=      5-min Rain = 0
KGO1 151029Z 31007KT M01/M04 A3021 RMK A01 T10141037  RH  084%=      5-min Rain = 0
KGO1 151030Z 31008KT M01/M04 A3021 RMK A01 T10141037  RH  085%=      5-min Rain = 0
KGO1 151031Z 31008KT M01/M04 A3021 RMK A01 T10141036  RH  085%=      5-min Rain = 0
KGO1 151032Z 31008KT M01/M04 A3021 RMK A01 T10121036  RH  084%=      5-min Rain = 0
KGO1 151033Z 31008KT M01/M04 A3021 RMK A01 T10111036  RH  084%=      5-min Rain = 0
KGO1 151034Z 31007KT M01/M04 A3021 RMK A01 T10111036  RH  083%=      5-min Rain = 0
KGO1 151035Z 31008KT M01/M04 A3021 RMK A01 T10111036  RH  083%=      5-min Rain = 0
KGO1 151036Z 31007KT M01/M04 A3021 RMK A01 T10111036  RH  083%=      5-min Rain = 0
KGO1 151037Z 30007KT M01/M04 A3021 RMK A01 T10101036  RH  083%=      5-min Rain = 0
KGO1 151038Z 30007KT M01/M04 A3021 RMK A01 T10111036  RH  083%=      5-min Rain = 0
KGO1 151039Z 30008KT M01/M04 A3021 RMK A01 T10111037  RH  083%=      5-min Rain = 0
KGO1 151040Z 30007KT M01/M04 A3021 RMK A01 T10111036  RH  083%=      5-min Rain = 0
KGO1 151041Z 30007KT M01/M04 A3021 RMK A01 T10121036  RH  084%=      5-min Rain = 0
KGO1 151042Z 31006KT M01/M04 A3021 RMK A01 T10121037  RH  084%=      5-min Rain = 0
KGO1 151043Z 31006KT M01/M04 A3021 RMK A01 T10131037  RH  084%=      5-min Rain = 0
KGO1 151044Z 31007KT M01/M04 A3021 RMK A01 T10131036  RH  084%=      5-min Rain = 0
KGO1 151045Z 31007KT M01/M04 A3021 RMK A01 T10131036  RH  084%=      5-min Rain = 0
KGO1 151046Z 31007KT M01/M04 A3021 RMK A01 T10121036  RH  084%=      5-min Rain = 0
KGO1 151047Z 31007KT M01/M04 A3021 RMK A01 T10111036  RH  084%=      5-min Rain = 0
KGO1 151048Z 31008KT M01/M04 A3021 RMK A01 T10111036  RH  083%=      5-min Rain = 0
KGO1 151049Z 31009KT M01/M04 A3021 RMK A01 T10111036  RH  083%=      5-min Rain = 0
KGO1 151050Z 31009KT M01/M04 A3021 RMK A01 T10101036  RH  083%=      5-min Rain = 0
KGO1 151051Z 31008KT M01/M04 A3021 RMK A01 T10091036  RH  082%=      5-min Rain = 0
KGO1 151052Z 31009KT M01/M04 A3021 RMK A01 T10081036  RH  082%=      5-min Rain = 0
KGO1 151053Z 31009KT M01/M04 A3021 RMK A01 T10071036  RH  081%=      5-min Rain = 0
KGO1 151054Z 31010KT M01/M04 A3021 RMK A01 T10071036  RH  081%=      5-min Rain = 0
KGO1 151055Z 31009KT M01/M04 A3021 RMK A01 T10071036  RH  081%=      5-min Rain = 0
KGO1 151056Z 31009KT M01/M04 A3021 RMK A01 T10071036  RH  081%=      5-min Rain = 0
KGO1 151057Z 31009KT M01/M04 A3021 RMK A01 T10071036  RH  081%=      5-min Rain = 0
KGO1 151058Z 31010KT M01/M04 A3021 RMK A01 T10071037  RH  081%=      5-min Rain = 0
KGO1 151059Z 31010KT M01/M04 A3021 RMK A01 T10071036  RH  081%=      5-min Rain = 0
KGO1 151100Z 31009KT M01/M04 A3021 RMK A01 T10071036  RH  080%=      5-min Rain = 0
KGO1 151101Z 31010KT M01/M04 A3021 RMK A01 T10071037  RH  080%=      5-min Rain = 0
KGO1 151102Z 31010KT M01/M04 A3021 RMK A01 T10061037  RH  080%=      5-min Rain = 0
KGO1 151103Z 31010KT M01/M04 A3021 RMK A01 T10061037  RH  079%=      5-min Rain = 0
KGO1 151104Z 31009KT M01/M04 A3021 RMK A01 T10051037  RH  079%=      5-min Rain = 0
KGO1 151105Z 31009KT M01/M04 A3021 RMK A01 T10051037  RH  079%=      5-min Rain = 0
KGO1 151106Z 31009KT M01/M04 A3021 RMK A01 T10051037  RH  079%=      5-min Rain = 0
KGO1 151107Z 31009KT M01/M04 A3021 RMK A01 T10051037  RH  079%=      5-min Rain = 0
KGO1 151108Z 31010KT M01/M04 A3021 RMK A01 T10051037  RH  079%=      5-min Rain = 0
KGO1 151109Z 32009KT M01/M04 A3021 RMK A01 T10051037  RH  079%=      5-min Rain = 0
KGO1 151110Z 31010KT M01/M04 A3021 RMK A01 T10061038  RH  079%=      5-min Rain = 0
KGO1 151111Z 31011KT M01/M04 A3021 RMK A01 T10061038  RH  079%=      5-min Rain = 0
KGO1 151112Z 32011KT M01/M04 A3021 RMK A01 T10061038  RH  079%=      5-min Rain = 0
KGO1 151113Z 32010KT M01/M04 A3021 RMK A01 T10051038  RH  078%=      5-min Rain = 0
KGO1 151114Z 32011KT M01/M04 A3021 RMK A01 T10051039  RH  078%=      5-min Rain = 0
KGO1 151115Z 31010KT M01/M04 A3021 RMK A01 T10051039  RH  078%=      5-min Rain = 0
KGO1 151116Z 31010KT M01/M04 A3021 RMK A01 T10051039  RH  078%=      5-min Rain = 0
KGO1 151117Z 31011KT M01/M04 A3021 RMK A01 T10051039  RH  078%=      5-min Rain = 0
KGO1 151118Z 32010KT M01/M04 A3021 RMK A01 T10051039  RH  078%=      5-min Rain = 0
KGO1 151119Z 32010KT M01/M04 A3021 RMK A01 T10051039  RH  078%=      5-min Rain = 0
KGO1 151120Z 32011KT M01/M04 A3021 RMK A01 T10061039  RH  078%=      5-min Rain = 0
KGO1 151121Z 31011KT M01/M04 A3021 RMK A01 T10061039  RH  078%=      5-min Rain = 0
KGO1 151122Z 32010KT M01/M04 A3021 RMK A01 T10061039  RH  078%=      5-min Rain = 0
KGO1 151123Z 32011KT M01/M04 A3021 RMK A01 T10071040  RH  078%=      5-min Rain = 0
KGO1 151124Z 31010KT M01/M04 A3021 RMK A01 T10071039  RH  079%=      5-min Rain = 0
KGO1 151125Z 32010KT M01/M04 A3021 RMK A01 T10071040  RH  079%=      5-min Rain = 0
KGO1 151126Z 32010KT M01/M04 A3021 RMK A01 T10071040  RH  079%=      5-min Rain = 0
KGO1 151127Z 31010KT M01/M04 A3021 RMK A01 T10071040  RH  079%=      5-min Rain = 0
KGO1 151128Z 31010KT M01/M04 A3021 RMK A01 T10081040  RH  079%=      5-min Rain = 0
KGO1 151129Z 32011KT M01/M04 A3021 RMK A01 T10081040  RH  079%=      5-min Rain = 0
KGO1 151130Z 31010KT M01/M04 A3021 RMK A01 T10091040  RH  079%=      5-min Rain = 0
KGO1 151131Z 31010KT M01/M04 A3021 RMK A01 T10091040  RH  079%=      5-min Rain = 0
KGO1 151132Z 32011KT M01/M04 A3021 RMK A01 T10091040  RH  079%=      5-min Rain = 0
KGO1 151133Z 32010KT M01/M04 A3021 RMK A01 T10091040  RH  079%=      5-min Rain = 0
KGO1 151134Z 32010KT M01/M04 A3021 RMK A01 T10081040  RH  079%=      5-min Rain = 0
KGO1 151135Z 31011KT M01/M04 A3021 RMK A01 T10091040  RH  079%=      5-min Rain = 0
KGO1 151136Z 31011KT M01/M04 A3021 RMK A01 T10091040  RH  079%=      5-min Rain = 0
KGO1 151137Z 32011KT M01/M04 A3021 RMK A01 T10091040  RH  079%=      5-min Rain = 0
KGO1 151138Z 32010KT M01/M04 A3021 RMK A01 T10091041  RH  079%=      5-min Rain = 0
KGO1 151139Z 32010KT M01/M04 A3021 RMK A01 T10091040  RH  079%=      5-min Rain = 0
KGO1 151140Z 32011KT M01/M04 A3021 RMK A01 T10101040  RH  080%=      5-min Rain = 0
KGO1 151141Z 32010KT M01/M04 A3021 RMK A01 T10101040  RH  080%=      5-min Rain = 0
KGO1 151142Z 32010KT M01/M04 A3021 RMK A01 T10101040  RH  080%=      5-min Rain = 0
KGO1 151143Z 32010KT M01/M04 A3021 RMK A01 T10101041  RH  080%=      5-min Rain = 0
KGO1 151144Z 32010KT M01/M04 A3021 RMK A01 T10101041  RH  080%=      5-min Rain = 0
KGO1 151145Z 32011KT M01/M04 A3021 RMK A01 T10101041  RH  079%=      5-min Rain = 0
KGO1 151146Z 32010KT M01/M04 A3021 RMK A01 T10101041  RH  079%=      5-min Rain = 0
KGO1 151147Z 32010KT M01/M04 A3021 RMK A01 T10101041  RH  079%=      5-min Rain = 0
KGO1 151148Z 32011KT M01/M04 A3021 RMK A01 T10091041  RH  079%=      5-min Rain = 0
KGO1 151149Z 32010KT M01/M04 A3021 RMK A01 T10091041  RH  079%=      5-min Rain = 0
KGO1 151150Z 32010KT M01/M04 A3022 RMK A01 T10091041  RH  079%=      5-min Rain = 0
KGO1 151151Z 32010KT M01/M04 A3022 RMK A01 T10091042  RH  079%=      5-min Rain = 0
KGO1 151152Z 32010KT M01/M04 A3022 RMK A01 T10091042  RH  079%=      5-min Rain = 0
KGO1 151153Z 32010KT M01/M04 A3022 RMK A01 T10101042  RH  079%=      5-min Rain = 0
KGO1 151154Z 31010KT M01/M04 A3022 RMK A01 T10091041  RH  079%=      5-min Rain = 0
KGO1 151155Z 32010KT M01/M04 A3022 RMK A01 T10091041  RH  079%=      5-min Rain = 0
KGO1 151156Z 32010KT M01/M04 A3022 RMK A01 T10091041  RH  079%=      5-min Rain = 0
KGO1 151157Z 32010KT M01/M04 A3022 RMK A01 T10091041  RH  079%=      5-min Rain = 0
KGO1 151158Z 32009KT M01/M04 A3022 RMK A01 T10091041  RH  079%=      5-min Rain = 0
KGO1 151159Z 32010KT M01/M04 A3022 RMK A01 T10091042  RH  079%=      5-min Rain = 0
KGO1 151200Z 32010KT M01/M04 A3022 RMK A01 T10101042  RH  079%=      5-min Rain = 0
KGO1 151201Z 32010KT M01/M04 A3022 RMK A01 T10091042  RH  079%=      5-min Rain = 0
KGO1 151202Z 32010KT M01/M04 A3022 RMK A01 T10091042  RH  078%=      5-min Rain = 0
KGO1 151203Z 32010KT M01/M04 A3022 RMK A01 T10091042  RH  078%=      5-min Rain = 0
KGO1 151204Z 32010KT M01/M04 A3022 RMK A01 T10091042  RH  078%=      5-min Rain = 0
KGO1 151205Z 32010KT M01/M04 A3022 RMK A01 T10091041  RH  078%=      5-min Rain = 0
KGO1 151206Z 32010KT M01/M04 A3022 RMK A01 T10091042  RH  078%=      5-min Rain = 0
KGO1 151207Z 32010KT M01/M04 A3022 RMK A01 T10091042  RH  078%=      5-min Rain = 0
KGO1 151208Z 32010KT M01/M04 A3022 RMK A01 T10091042  RH  078%=      5-min Rain = 0
KGO1 151209Z 32010KT M01/M04 A3022 RMK A01 T10091042  RH  078%=      5-min Rain = 0
KGO1 151210Z 32010KT M01/M04 A3022 RMK A01 T10101042  RH  078%=      5-min Rain = 0
KGO1 151211Z 32010KT M01/M04 A3022 RMK A01 T10091042  RH  079%=      5-min Rain = 0
KGO1 151212Z 32010KT M01/M04 A3022 RMK A01 T10091042  RH  079%=      5-min Rain = 0
KGO1 151213Z 32010KT M01/M04 A3022 RMK A01 T10091042  RH  078%=      5-min Rain = 0
KGO1 151214Z 32009KT M01/M04 A3022 RMK A01 T10091042  RH  078%=      5-min Rain = 0
KGO1 151215Z 32011KT M01/M04 A3022 RMK A01 T10101042  RH  079%=      5-min Rain = 0
KGO1 151216Z 32011KT M01/M04 A3021 RMK A01 T10101042  RH  079%=      5-min Rain = 0
KGO1 151217Z 32010KT M01/M04 A3021 RMK A01 T10091043  RH  078%=      5-min Rain = 0
KGO1 151218Z 32010KT M01/M04 A3022 RMK A01 T10091043  RH  078%=      5-min Rain = 0
KGO1 151219Z 32010KT M01/M04 A3022 RMK A01 T10101043  RH  078%=      5-min Rain = 0
KGO1 151220Z 32011KT M01/M04 A3022 RMK A01 T10101043  RH  078%=      5-min Rain = 0
KGO1 151221Z 32011KT M01/M04 A3022 RMK A01 T10101043  RH  078%=      5-min Rain = 0
KGO1 151222Z 32011KT M01/M04 A3022 RMK A01 T10101043  RH  078%=      5-min Rain = 0
KGO1 151223Z 32009KT M01/M04 A3022 RMK A01 T10101043  RH  078%=      5-min Rain = 0
KGO1 151224Z 32010KT M01/M04 A3022 RMK A01 T10101043  RH  078%=      5-min Rain = 0
KGO1 151225Z 32009KT M01/M04 A3022 RMK A01 T10101043  RH  078%=      5-min Rain = 0
KGO1 151226Z 32009KT M01/M04 A3022 RMK A01 T10101043  RH  078%=      5-min Rain = 0
KGO1 151227Z 32009KT M01/M04 A3022 RMK A01 T10111044  RH  079%=      5-min Rain = 0
KGO1 151228Z 32011KT M01/M04 A3022 RMK A01 T10111043  RH  079%=      5-min Rain = 0
KGO1 151229Z 32011KT M01/M04 A3022 RMK A01 T10111043  RH  079%=      5-min Rain = 0
KGO1 151230Z 32010KT M01/M04 A3022 RMK A01 T10101043  RH  079%=      5-min Rain = 0
KGO1 151231Z 32010KT M01/M04 A3022 RMK A01 T10111043  RH  079%=      5-min Rain = 0
KGO1 151232Z 32009KT M01/M04 A3022 RMK A01 T10111043  RH  079%=      5-min Rain = 0
KGO1 151233Z 32010KT M01/M04 A3022 RMK A01 T10111043  RH  079%=      5-min Rain = 0
KGO1 151234Z 32009KT M01/M04 A3022 RMK A01 T10111043  RH  079%=      5-min Rain = 0
KGO1 151235Z 32009KT M01/M04 A3022 RMK A01 T10111043  RH  079%=      5-min Rain = 0
KGO1 151236Z 32009KT M01/M04 A3022 RMK A01 T10111043  RH  079%=      5-min Rain = 0
KGO1 151237Z 32008KT M01/M04 A3022 RMK A01 T10121044  RH  079%=      5-min Rain = 0
KGO1 151238Z 32010KT M01/M04 A3022 RMK A01 T10131044  RH  079%=      5-min Rain = 0
KGO1 151239Z 32010KT M01/M04 A3022 RMK A01 T10131044  RH  079%=      5-min Rain = 0
KGO1 151240Z 32010KT M01/M04 A3022 RMK A01 T10121043  RH  079%=      5-min Rain = 0
KGO1 151241Z 32010KT M01/M04 A3022 RMK A01 T10111044  RH  079%=      5-min Rain = 0
KGO1 151242Z 32009KT M01/M04 A3022 RMK A01 T10111043  RH  079%=      5-min Rain = 0
KGO1 151243Z 32010KT M01/M04 A3022 RMK A01 T10111043  RH  079%=      5-min Rain = 0
KGO1 151244Z 32011KT M01/M04 A3022 RMK A01 T10111044  RH  079%=      5-min Rain = 0
KGO1 151245Z 32010KT M01/M04 A3022 RMK A01 T10111044  RH  079%=      5-min Rain = 0
KGO1 151246Z 32010KT M01/M04 A3022 RMK A01 T10121044  RH  079%=      5-min Rain = 0
KGO1 151247Z 32010KT M01/M04 A3022 RMK A01 T10121044  RH  079%=      5-min Rain = 0
KGO1 151248Z 32010KT M01/M04 A3022 RMK A01 T10121044  RH  079%=      5-min Rain = 0
KGO1 151249Z 32011KT M01/M04 A3022 RMK A01 T10121044  RH  079%=      5-min Rain = 0
KGO1 151250Z 32011KT M01/M04 A3022 RMK A01 T10111043  RH  079%=      5-min Rain = 0
KGO1 151251Z 32011KT M01/M04 A3022 RMK A01 T10121044  RH  079%=      5-min Rain = 0
KGO1 151252Z 32010KT M01/M04 A3022 RMK A01 T10121044  RH  079%=      5-min Rain = 0
KGO1 151253Z 32011KT M01/M04 A3022 RMK A01 T10131044  RH  079%=      5-min Rain = 0
KGO1 151254Z 32011KT M01/M04 A3022 RMK A01 T10131044  RH  079%=      5-min Rain = 0
KGO1 151255Z 32010KT M01/M04 A3022 RMK A01 T10131044  RH  079%=      5-min Rain = 0
KGO1 151256Z 32011KT M01/M04 A3022 RMK A01 T10131044  RH  079%=      5-min Rain = 0
KGO1 151257Z 32010KT M01/M04 A3022 RMK A01 T10131044  RH  079%=      5-min Rain = 0
KGO1 151258Z 32010KT M01/M04 A3022 RMK A01 T10141044  RH  080%=      5-min Rain = 0
KGO1 151259Z 32010KT M01/M04 A3023 RMK A01 T10141044  RH  080%=      5-min Rain = 0
KGO1 151300Z 32010KT M01/M04 A3023 RMK A01 T10141044  RH  080%=      5-min Rain = 0
KGO1 151301Z 32010KT M02/M05 A3023 RMK A01 T10151045  RH  080%=      5-min Rain = 0
KGO1 151302Z 33010KT M02/M04 A3022 RMK A01 T10151044  RH  080%=      5-min Rain = 0
KGO1 151303Z 33009KT M02/M04 A3022 RMK A01 T10151044  RH  080%=      5-min Rain = 0
KGO1 151304Z 32010KT M02/M04 A3022 RMK A01 T10151044  RH  080%=      5-min Rain = 0
KGO1 151305Z 33010KT M02/M04 A3023 RMK A01 T10151044  RH  080%=      5-min Rain = 0
KGO1 151306Z 32010KT M02/M05 A3023 RMK A01 T10151045  RH  081%=      5-min Rain = 0
KGO1 151307Z 32010KT M02/M05 A3023 RMK A01 T10151045  RH  080%=      5-min Rain = 0
KGO1 151308Z 32009KT M02/M05 A3023 RMK A01 T10151045  RH  080%=      5-min Rain = 0
KGO1 151309Z 33010KT M02/M05 A3023 RMK A01 T10161045  RH  080%=      5-min Rain = 0
KGO1 151310Z 32010KT M02/M05 A3023 RMK A01 T10161045  RH  080%=      5-min Rain = 0
KGO1 151311Z 33010KT M02/M05 A3023 RMK A01 T10161045  RH  081%=      5-min Rain = 0
KGO1 151312Z 33010KT M02/M05 A3023 RMK A01 T10161045  RH  081%=      5-min Rain = 0
KGO1 151313Z 33010KT M02/M05 A3023 RMK A01 T10161045  RH  080%=      5-min Rain = 0
KGO1 151314Z 33010KT M02/M05 A3023 RMK A01 T10161046  RH  080%=      5-min Rain = 0
KGO1 151315Z 33009KT M02/M05 A3023 RMK A01 T10161045  RH  080%=      5-min Rain = 0
KGO1 151316Z 33009KT M02/M05 A3023 RMK A01 T10171046  RH  081%=      5-min Rain = 0
KGO1 151317Z 33011KT M02/M05 A3023 RMK A01 T10171046  RH  081%=      5-min Rain = 0
KGO1 151318Z 33009KT M02/M05 A3023 RMK A01 T10171045  RH  081%=      5-min Rain = 0
KGO1 151319Z 33010KT M02/M05 A3023 RMK A01 T10171046  RH  081%=      5-min Rain = 0
KGO1 151320Z 33010KT M02/M05 A3023 RMK A01 T10171046  RH  081%=      5-min Rain = 0
KGO1 151321Z 33010KT M02/M05 A3023 RMK A01 T10171046  RH  081%=      5-min Rain = 0
KGO1 151322Z 32010KT M02/M05 A3023 RMK A01 T10171046  RH  081%=      5-min Rain = 0
KGO1 151323Z 33010KT M02/M05 A3023 RMK A01 T10171046  RH  081%=      5-min Rain = 0
KGO1 151324Z 32009KT M02/M05 A3023 RMK A01 T10161046  RH  080%=      5-min Rain = 0
KGO1 151325Z 33010KT M02/M05 A3023 RMK A01 T10161046  RH  080%=      5-min Rain = 0
KGO1 151326Z 33009KT M02/M05 A3023 RMK A01 T10171046  RH  081%=      5-min Rain = 0
KGO1 151327Z 33010KT M02/M05 A3023 RMK A01 T10171046  RH  081%=      5-min Rain = 0
KGO1 151328Z 33010KT M02/M05 A3023 RMK A01 T10171046  RH  081%=      5-min Rain = 0
KGO1 151329Z 33009KT M02/M05 A3023 RMK A01 T10171046  RH  081%=      5-min Rain = 0
KGO1 151330Z 33009KT M02/M05 A3023 RMK A01 T10171046  RH  081%=      5-min Rain = 0
KGO1 151331Z 33009KT M02/M05 A3023 RMK A01 T10181046  RH  081%=      5-min Rain = 0
KGO1 151332Z 32010KT M02/M05 A3023 RMK A01 T10181046  RH  081%=      5-min Rain = 0
KGO1 151333Z 33010KT M02/M05 A3023 RMK A01 T10171046  RH  081%=      5-min Rain = 0
KGO1 151334Z 32010KT M02/M05 A3023 RMK A01 T10171046  RH  081%=      5-min Rain = 0
KGO1 151335Z 32011KT M02/M05 A3023 RMK A01 T10171046  RH  081%=      5-min Rain = 0
KGO1 151336Z 32011KT M02/M05 A3023 RMK A01 T10161046  RH  080%=      5-min Rain = 0
KGO1 151337Z 33010KT M02/M05 A3023 RMK A01 T10161046  RH  080%=      5-min Rain = 0
KGO1 151338Z 33010KT M02/M05 A3023 RMK A01 T10161046  RH  080%=      5-min Rain = 0
KGO1 151339Z 32010KT M02/M05 A3023 RMK A01 T10161046  RH  080%=      5-min Rain = 0
KGO1 151340Z 33010KT M02/M05 A3023 RMK A01 T10151046  RH  080%=      5-min Rain = 0
KGO1 151341Z 32010KT M02/M05 A3023 RMK A01 T10151046  RH  080%=      5-min Rain = 0
KGO1 151342Z 32011KT M02/M05 A3023 RMK A01 T10151046  RH  080%=      5-min Rain = 0
KGO1 151343Z 32011KT M02/M05 A3023 RMK A01 T10151046  RH  080%=      5-min Rain = 0
KGO1 151344Z 32010KT M02/M05 A3023 RMK A01 T10151046  RH  080%=      5-min Rain = 0
KGO1 151345Z 32011KT M02/M05 A3024 RMK A01 T10151046  RH  080%=      5-min Rain = 0
KGO1 151346Z 32011KT M02/M05 A3024 RMK A01 T10151046  RH  080%=      5-min Rain = 0
KGO1 151347Z 32011KT M02/M05 A3024 RMK A01 T10151046  RH  079%=      5-min Rain = 0
KGO1 151348Z 32011KT M02/M05 A3024 RMK A01 T10151046  RH  079%=      5-min Rain = 0
KGO1 151349Z 32010KT M02/M05 A3024 RMK A01 T10151046  RH  079%=      5-min Rain = 0
KGO1 151350Z 32011KT M01/M05 A3024 RMK A01 T10141046  RH  079%=      5-min Rain = 0
KGO1 151351Z 32010KT M01/M05 A3024 RMK A01 T10141046  RH  079%=      5-min Rain = 0
KGO1 151352Z 32010KT M01/M05 A3024 RMK A01 T10141045  RH  079%=      5-min Rain = 0
KGO1 151353Z 32010KT M01/M05 A3024 RMK A01 T10141045  RH  079%=      5-min Rain = 0
KGO1 151354Z 32011KT M02/M05 A3024 RMK A01 T10151046  RH  079%=      5-min Rain = 0
KGO1 151355Z 32011KT M01/M05 A3024 RMK A01 T10141045  RH  079%=      5-min Rain = 0
KGO1 151356Z 32011KT M01/M05 A3024 RMK A01 T10121045  RH  078%=      5-min Rain = 0
KGO1 151357Z 32010KT M01/M05 A3024 RMK A01 T10111045  RH  078%=      5-min Rain = 0
KGO1 151358Z 32010KT M01/M04 A3024 RMK A01 T10111044  RH  078%=      5-min Rain = 0
KGO1 151359Z 32009KT M01/M04 A3024 RMK A01 T10111044  RH  078%=      5-min Rain = 0
KGO1 151400Z 32010KT M01/M04 A3024 RMK A01 T10111044  RH  078%=      5-min Rain = 0
KGO1 151401Z 32010KT M01/M04 A3024 RMK A01 T10111044  RH  078%=      5-min Rain = 0
KGO1 151402Z 32009KT M01/M04 A3024 RMK A01 T10101044  RH  078%=      5-min Rain = 0
KGO1 151403Z 32009KT M01/M04 A3024 RMK A01 T10101044  RH  078%=      5-min Rain = 0
KGO1 151404Z 32009KT M01/M04 A3024 RMK A01 T10101044  RH  078%=      5-min Rain = 0
KGO1 151405Z 32010KT M01/M04 A3024 RMK A01 T10091043  RH  078%=      5-min Rain = 0
KGO1 151406Z 32009KT M01/M04 A3024 RMK A01 T10091043  RH  078%=      5-min Rain = 0
KGO1 151407Z 32009KT M01/M04 A3024 RMK A01 T10081043  RH  078%=      5-min Rain = 0
KGO1 151408Z 32010KT M01/M04 A3024 RMK A01 T10081043  RH  078%=      5-min Rain = 0
KGO1 151409Z 32009KT M01/M04 A3024 RMK A01 T10081042  RH  077%=      5-min Rain = 0
KGO1 151410Z 32009KT M01/M04 A3024 RMK A01 T10071042  RH  077%=      5-min Rain = 0
KGO1 151411Z 32009KT M01/M04 A3025 RMK A01 T10071042  RH  077%=      5-min Rain = 0
KGO1 151412Z 32009KT M01/M04 A3025 RMK A01 T10061042  RH  077%=      5-min Rain = 0
KGO1 151413Z 32009KT M01/M04 A3025 RMK A01 T10051042  RH  077%=      5-min Rain = 0
KGO1 151414Z 32008KT M00/M04 A3025 RMK A01 T10041042  RH  076%=      5-min Rain = 0
KGO1 151415Z 32010KT M00/M04 A3025 RMK A01 T10041041  RH  076%=      5-min Rain = 0
KGO1 151416Z 32008KT M00/M04 A3025 RMK A01 T10031041  RH  076%=      5-min Rain = 0
KGO1 151417Z 32009KT M00/M04 A3025 RMK A01 T10021041  RH  075%=      5-min Rain = 0
KGO1 151418Z 32008KT M00/M04 A3025 RMK A01 T10011041  RH  075%=      5-min Rain = 0
KGO1 151419Z 32008KT M00/M04 A3025 RMK A01 T10011041  RH  074%=      5-min Rain = 0
KGO1 151420Z 32007KT 00/04 A3025 RMK A01 T00-00-40  RH  075%=      5-min Rain = 0
KGO1 151421Z 32008KT 00/04 A3025 RMK A01 T00000-40  RH  074%=      5-min Rain = 0
KGO1 151422Z 32008KT 00/M04 A3025 RMK A01 T00011040  RH  074%=      5-min Rain = 0
KGO1 151423Z 32008KT 00/M04 A3025 RMK A01 T00011040  RH  074%=      5-min Rain = 0
KGO1 151424Z 32007KT 00/M04 A3025 RMK A01 T00011040  RH  074%=      5-min Rain = 0
KGO1 151425Z 31008KT 00/M04 A3025 RMK A01 T00011039  RH  074%=      5-min Rain = 0
KGO1 151426Z 32007KT 00/M04 A3025 RMK A01 T00021039  RH  074%=      5-min Rain = 0
KGO1 151427Z 32007KT 00/M04 A3025 RMK A01 T00021039  RH  074%=      5-min Rain = 0
KGO1 151428Z 32007KT 00/M04 A3026 RMK A01 T00021039  RH  074%=      5-min Rain = 0
KGO1 151429Z 32008KT 00/M04 A3025 RMK A01 T00021039  RH  074%=      5-min Rain = 0
KGO1 151430Z 32008KT 00/M04 A3026 RMK A01 T00031038  RH  074%=      5-min Rain = 0
KGO1 151431Z 32008KT 00/M04 A3026 RMK A01 T00031040  RH  073%=      5-min Rain = 0
KGO1 151432Z 32008KT 00/M04 A3026 RMK A01 T00031039  RH  074%=      5-min Rain = 0
KGO1 151433Z 32007KT 00/M04 A3026 RMK A01 T00041038  RH  073%=      5-min Rain = 0
KGO1 151434Z 32009KT 00/M04 A3026 RMK A01 T00041037  RH  073%=      5-min Rain = 0
KGO1 151435Z 32008KT 01/M04 A3026 RMK A01 T00051038  RH  073%=      5-min Rain = 0
KGO1 151436Z 32008KT 01/M04 A3026 RMK A01 T00051038  RH  073%=      5-min Rain = 0
KGO1 151437Z 32007KT 01/M04 A3026 RMK A01 T00061037  RH  073%=      5-min Rain = 0
KGO1 151438Z 32007KT 01/M04 A3026 RMK A01 T00061037  RH  073%=      5-min Rain = 0
KGO1 151439Z 32008KT 01/M04 A3026 RMK A01 T00071036  RH  073%=      5-min Rain = 0
KGO1 151440Z 32007KT 01/M04 A3026 RMK A01 T00071036  RH  073%=      5-min Rain = 0
KGO1 151441Z 32008KT 01/M04 A3026 RMK A01 T00081035  RH  073%=      5-min Rain = 0
KGO1 151442Z 32008KT 01/M04 A3026 RMK A01 T00091036  RH  072%=      5-min Rain = 0
KGO1 151443Z 33007KT 01/M04 A3026 RMK A01 T00091035  RH  072%=      5-min Rain = 0
KGO1 151444Z 32008KT 01/M04 A3026 RMK A01 T00101035  RH  072%=      5-min Rain = 0
KGO1 151445Z 32008KT 01/M04 A3026 RMK A01 T00101036  RH  072%=      5-min Rain = 0
KGO1 151446Z 32009KT 01/M04 A3026 RMK A01 T00101036  RH  071%=      5-min Rain = 0
KGO1 151447Z 32008KT 01/M04 A3026 RMK A01 T00101036  RH  072%=      5-min Rain = 0
KGO1 151448Z 32007KT 01/M04 A3026 RMK A01 T00101035  RH  072%=      5-min Rain = 0
KGO1 151449Z 32008KT 01/M03 A3026 RMK A01 T00111034  RH  072%=      5-min Rain = 0
KGO1 151450Z 32007KT 01/M03 A3026 RMK A01 T00121034  RH  071%=      5-min Rain = 0
KGO1 151451Z 32008KT 01/M03 A3026 RMK A01 T00121033  RH  072%=      5-min Rain = 0
KGO1 151452Z 32008KT 01/M03 A3026 RMK A01 T00131033  RH  071%=      5-min Rain = 0
KGO1 151453Z 32008KT 01/M03 A3026 RMK A01 T00131034  RH  071%=      5-min Rain = 0
KGO1 151454Z 32008KT 01/M03 A3026 RMK A01 T00121034  RH  071%=      5-min Rain = 0
KGO1 151455Z 32008KT 01/M03 A3026 RMK A01 T00131033  RH  071%=      5-min Rain = 0
KGO1 151456Z 32008KT 01/M03 A3026 RMK A01 T00131032  RH  072%=      5-min Rain = 0
KGO1 151457Z 32008KT 01/M03 A3026 RMK A01 T00141034  RH  071%=      5-min Rain = 0
KGO1 151458Z 32008KT 01/M03 A3026 RMK A01 T00141032  RH  071%=      5-min Rain = 0
KGO1 151459Z 32008KT 02/M03 A3026 RMK A01 T00151032  RH  071%=      5-min Rain = 0
KGO1 151500Z 32008KT 02/M03 A3026 RMK A01 T00161032  RH  071%=      5-min Rain = 0
KGO1 151501Z 32008KT 02/M03 A3026 RMK A01 T00161031  RH  071%=      5-min Rain = 0
KGO1 151502Z 32008KT 02/M03 A3026 RMK A01 T00171031  RH  071%=      5-min Rain = 0
KGO1 151503Z 32009KT 02/M03 A3026 RMK A01 T00181032  RH  070%=      5-min Rain = 0
KGO1 151504Z 32009KT 02/M03 A3026 RMK A01 T00181033  RH  069%=      5-min Rain = 0
KGO1 151505Z 32008KT 02/M03 A3026 RMK A01 T00181032  RH  070%=      5-min Rain = 0
KGO1 151506Z 31008KT 02/M03 A3026 RMK A01 T00181032  RH  070%=      5-min Rain = 0
KGO1 151507Z 32008KT 02/M03 A3026 RMK A01 T00191032  RH  069%=      5-min Rain = 0
KGO1 151508Z 32007KT 02/M03 A3026 RMK A01 T00191032  RH  069%=      5-min Rain = 0
KGO1 151509Z 32007KT 02/M03 A3027 RMK A01 T00201030  RH  070%=      5-min Rain = 0
KGO1 151510Z 31008KT 02/M03 A3027 RMK A01 T00211030  RH  069%=      5-min Rain = 0
KGO1 151511Z 31008KT 02/M03 A3027 RMK A01 T00211032  RH  068%=      5-min Rain = 0
KGO1 151512Z 32008KT 02/M03 A3027 RMK A01 T00211030  RH  069%=      5-min Rain = 0
KGO1 151513Z 31007KT 02/M03 A3027 RMK A01 T00221029  RH  069%=      5-min Rain = 0
KGO1 151514Z 31006KT 02/M03 A3027 RMK A01 T00231029  RH  069%=      5-min Rain = 0
KGO1 151515Z 31007KT 02/M03 A3027 RMK A01 T00231028  RH  069%=      5-min Rain = 0
KGO1 151516Z 31006KT 02/M03 A3027 RMK A01 T00241028  RH  069%=      5-min Rain = 0
KGO1 151517Z 31005KT 02/M03 A3027 RMK A01 T00241027  RH  069%=      5-min Rain = 0
KGO1 151518Z 30007KT 03/M03 A3027 RMK A01 T00251025  RH  069%=      5-min Rain = 0
KGO1 151519Z 30006KT 03/M03 A3027 RMK A01 T00251026  RH  069%=      5-min Rain = 0
KGO1 151520Z 31007KT 03/M03 A3027 RMK A01 T00251026  RH  069%=      5-min Rain = 0
KGO1 151521Z 30007KT 03/M03 A3027 RMK A01 T00251025  RH  069%=      5-min Rain = 0
KGO1 151522Z 30008KT 03/M03 A3027 RMK A01 T00251026  RH  069%=      5-min Rain = 0
KGO1 151523Z 30007KT 03/M03 A3027 RMK A01 T00261025  RH  069%=      5-min Rain = 0
KGO1 151524Z 30007KT 03/M02 A3027 RMK A01 T00261024  RH  070%=      5-min Rain = 0
KGO1 151525Z 30007KT 03/M03 A3027 RMK A01 T00261026  RH  069%=      5-min Rain = 0
KGO1 151526Z 30007KT 03/M03 A3027 RMK A01 T00261026  RH  069%=      5-min Rain = 0
KGO1 151527Z 30007KT 03/M03 A3027 RMK A01 T00261025  RH  069%=      5-min Rain = 0
KGO1 151528Z 30008KT 03/M02 A3027 RMK A01 T00261024  RH  069%=      5-min Rain = 0
KGO1 151529Z 30005KT 03/M02 A3027 RMK A01 T00261023  RH  070%=      5-min Rain = 0
KGO1 151530Z 30006KT 03/M02 A3027 RMK A01 T00271020  RH  071%=      5-min Rain = 0
KGO1 151531Z 30007KT 03/M02 A3027 RMK A01 T00291023  RH  069%=      5-min Rain = 0
KGO1 151532Z 30007KT 03/M03 A3027 RMK A01 T00291025  RH  068%=      5-min Rain = 0
KGO1 151533Z 31007KT 03/M03 A3027 RMK A01 T00291026  RH  067%=      5-min Rain = 0
KGO1 151534Z 30007KT 03/M03 A3027 RMK A01 T00281025  RH  068%=      5-min Rain = 0
KGO1 151535Z 30008KT 03/M03 A3027 RMK A01 T00291027  RH  067%=      5-min Rain = 0
KGO1 151536Z 30007KT 03/M02 A3027 RMK A01 T00291022  RH  069%=      5-min Rain = 0
KGO1 151537Z 30008KT 03/M02 A3027 RMK A01 T00301024  RH  068%=      5-min Rain = 0
KGO1 151538Z 30008KT 03/M03 A3027 RMK A01 T00301025  RH  067%=      5-min Rain = 0
KGO1 151539Z 30008KT 03/M03 A3027 RMK A01 T00311026  RH  066%=      5-min Rain = 0
KGO1 151540Z 30007KT 03/M03 A3027 RMK A01 T00311025  RH  067%=      5-min Rain = 0
KGO1 151541Z 30008KT 03/M02 A3027 RMK A01 T00321023  RH  067%=      5-min Rain = 0
KGO1 151542Z 30007KT 03/M02 A3027 RMK A01 T00321024  RH  066%=      5-min Rain = 0
KGO1 151543Z 31007KT 03/M02 A3027 RMK A01 T00321023  RH  067%=      5-min Rain = 0
KGO1 151544Z 30008KT 03/M02 A3027 RMK A01 T00331023  RH  067%=      5-min Rain = 0
KGO1 151545Z 30008KT 03/M02 A3027 RMK A01 T00331023  RH  067%=      5-min Rain = 0
KGO1 151546Z 31007KT 03/M02 A3027 RMK A01 T00331024  RH  066%=      5-min Rain = 0
KGO1 151547Z 30007KT 03/M02 A3027 RMK A01 T00331022  RH  067%=      5-min Rain = 0
KGO1 151548Z 31008KT 03/M02 A3027 RMK A01 T00341022  RH  067%=      5-min Rain = 0
KGO1 151549Z 30007KT 04/M03 A3027 RMK A01 T00351025  RH  065%=      5-min Rain = 0
KGO1 151550Z 31007KT 04/M02 A3027 RMK A01 T00351022  RH  066%=      5-min Rain = 0
KGO1 151551Z 30008KT 04/M02 A3027 RMK A01 T00351023  RH  066%=      5-min Rain = 0
KGO1 151552Z 30006KT 04/M02 A3027 RMK A01 T00361019  RH  067%=      5-min Rain = 0
KGO1 151553Z 30006KT 04/M02 A3027 RMK A01 T00371021  RH  066%=      5-min Rain = 0
KGO1 151554Z 31007KT 04/M02 A3027 RMK A01 T00371022  RH  065%=      5-min Rain = 0
KGO1 151555Z 30007KT 04/M02 A3027 RMK A01 T00371024  RH  065%=      5-min Rain = 0
KGO1 151556Z 30007KT 04/M02 A3027 RMK A01 T00361024  RH  065%=      5-min Rain = 0
KGO1 151557Z 30006KT 04/M03 A3027 RMK A01 T00361026  RH  064%=      5-min Rain = 0
KGO1 151558Z 30007KT 04/M03 A3027 RMK A01 T00371025  RH  064%=      5-min Rain = 0
KGO1 151559Z 31006KT 04/M03 A3027 RMK A01 T00381025  RH  064%=      5-min Rain = 0
KGO1 151600Z 30006KT 04/M02 A3027 RMK A01 T00401021  RH  065%=      5-min Rain = 0
KGO1 151601Z 31006KT 04/M03 A3027 RMK A01 T00401025  RH  062%=      5-min Rain = 0
KGO1 151602Z 31005KT 04/M03 A3027 RMK A01 T00401026  RH  062%=      5-min Rain = 0
KGO1 151603Z 31006KT 04/M03 A3027 RMK A01 T00401025  RH  063%=      5-min Rain = 0
KGO1 151604Z 31006KT 04/M03 A3027 RMK A01 T00401026  RH  062%=      5-min Rain = 0
KGO1 151605Z 31005KT 04/M02 A3027 RMK A01 T00401024  RH  063%=      5-min Rain = 0
KGO1 151606Z 31006KT 04/M03 A3027 RMK A01 T00411025  RH  062%=      5-min Rain = 0
KGO1 151607Z 31005KT 04/M02 A3027 RMK A01 T00411020  RH  065%=      5-min Rain = 0
KGO1 151608Z 32005KT 04/M02 A3027 RMK A01 T00431019  RH  064%=      5-min Rain = 0
KGO1 151609Z 32007KT 04/M02 A3027 RMK A01 T00441017  RH  064%=      5-min Rain = 0
KGO1 151610Z 31006KT 04/M02 A3027 RMK A01 T00441019  RH  063%=      5-min Rain = 0
KGO1 151611Z 31006KT 04/M02 A3027 RMK A01 T00441019  RH  064%=      5-min Rain = 0
KGO1 151612Z 32005KT 05/M02 A3027 RMK A01 T00461015  RH  065%=      5-min Rain = 0
KGO1 151613Z 30006KT 05/M02 A3027 RMK A01 T00471016  RH  064%=      5-min Rain = 0
KGO1 151614Z 30006KT 05/M02 A3027 RMK A01 T00471019  RH  063%=      5-min Rain = 0
KGO1 151615Z 30006KT 05/M02 A3027 RMK A01 T00451021  RH  062%=      5-min Rain = 0
KGO1 151616Z 29005KT 05/M02 A3027 RMK A01 T00451015  RH  065%=      5-min Rain = 0
KGO1 151617Z 30006KT 05/M01 A3027 RMK A01 T00481011  RH  066%=      5-min Rain = 0
KGO1 151618Z 30006KT 05/M02 A3027 RMK A01 T00481019  RH  062%=      5-min Rain = 0
KGO1 151619Z 29005KT 05/M02 A3027 RMK A01 T00461022  RH  061%=      5-min Rain = 0
KGO1 151620Z 31005KT 05/M02 A3027 RMK A01 T00461018  RH  063%=      5-min Rain = 0
KGO1 151621Z 31005KT 05/M02 A3027 RMK A01 T00471018  RH  063%=      5-min Rain = 0
KGO1 151622Z 29006KT 05/M01 A3027 RMK A01 T00481012  RH  065%=      5-min Rain = 0
KGO1 151623Z 28005KT 05/M01 A3027 RMK A01 T00501012  RH  064%=      5-min Rain = 0
KGO1 151624Z 29005KT 05/M02 A3027 RMK A01 T00501017  RH  062%=      5-min Rain = 0
KGO1 151625Z 29006KT 05/M02 A3027 RMK A01 T00491017  RH  062%=      5-min Rain = 0
KGO1 151626Z 29006KT 05/M01 A3027 RMK A01 T00491014  RH  064%=      5-min Rain = 0
KGO1 151627Z 28005KT 05/M02 A3027 RMK A01 T00491016  RH  063%=      5-min Rain = 0
KGO1 151628Z 30006KT 05/M02 A3027 RMK A01 T00491015  RH  063%=      5-min Rain = 0
KGO1 151629Z 30006KT 05/M02 A3027 RMK A01 T00501015  RH  063%=      5-min Rain = 0
KGO1 151630Z 29004KT 05/M02 A3027 RMK A01 T00501016  RH  062%=      5-min Rain = 0
KGO1 151631Z 29005KT 05/M01 A3027 RMK A01 T00511013  RH  063%=      5-min Rain = 0
KGO1 151632Z 31005KT 05/M01 A3027 RMK A01 T00531011  RH  064%=      5-min Rain = 0
KGO1 151633Z 30005KT 05/M01 A3027 RMK A01 T00541014  RH  062%=      5-min Rain = 0
KGO1 151634Z 30005KT 05/M02 A3027 RMK A01 T00531017  RH  060%=      5-min Rain = 0
KGO1 151635Z 30003KT 05/M02 A3027 RMK A01 T00531015  RH  061%=      5-min Rain = 0
KGO1 151636Z 30005KT 05/M02 A3027 RMK A01 T00531016  RH  061%=      5-min Rain = 0
KGO1 151637Z 30005KT 05/M01 A3027 RMK A01 T00541012  RH  062%=      5-min Rain = 0
KGO1 151638Z 28004KT 06/M01 A3027 RMK A01 T00551014  RH  061%=      5-min Rain = 0
KGO1 151639Z 30005KT 06/M02 A3027 RMK A01 T00551016  RH  060%=      5-min Rain = 0
KGO1 151640Z 29005KT 06/M02 A3027 RMK A01 T00551016  RH  060%=      5-min Rain = 0
KGO1 151641Z 28004KT 06/M01 A3027 RMK A01 T00551014  RH  061%=      5-min Rain = 0
KGO1 151642Z 28005KT 06/M01 A3027 RMK A01 T00571011  RH  062%=      5-min Rain = 0
KGO1 151643Z 28006KT 06/M01 A3027 RMK A01 T00581012  RH  061%=      5-min Rain = 0
KGO1 151644Z 28005KT 06/M02 A3027 RMK A01 T00561018  RH  059%=      5-min Rain = 0
KGO1 151645Z 28005KT 06/M02 A3027 RMK A01 T00551016  RH  060%=      5-min Rain = 0
KGO1 151646Z 30005KT 06/M01 A3027 RMK A01 T00561013  RH  062%=      5-min Rain = 0
KGO1 151647Z 28005KT 06/M02 A3027 RMK A01 T00571018  RH  059%=      5-min Rain = 0
KGO1 151648Z 28005KT 06/M02 A3027 RMK A01 T00571017  RH  059%=      5-min Rain = 0
KGO1 151649Z 30006KT 06/M02 A3027 RMK A01 T00571019  RH  058%=      5-min Rain = 0
KGO1 151650Z 29004KT 06/M02 A3027 RMK A01 T00571018  RH  059%=      5-min Rain = 0
KGO1 151651Z 30006KT 06/M02 A3027 RMK A01 T00571019  RH  058%=      5-min Rain = 0
KGO1 151652Z 31006KT 06/M02 A3027 RMK A01 T00571019  RH  058%=      5-min Rain = 0
KGO1 151653Z 30005KT 06/M02 A3027 RMK A01 T00571017  RH  059%=      5-min Rain = 0
KGO1 151654Z 32004KT 06/M02 A3027 RMK A01 T00581015  RH  059%=      5-min Rain = 0
KGO1 151655Z 32005KT 06/M02 A3027 RMK A01 T00601015  RH  059%=      5-min Rain = 0
KGO1 151656Z 31005KT 06/M02 A3027 RMK A01 T00611017  RH  057%=      5-min Rain = 0
KGO1 151657Z 31004KT 06/M02 A3027 RMK A01 T00611018  RH  057%=      5-min Rain = 0
KGO1 151658Z 31006KT 06/M02 A3027 RMK A01 T00611018  RH  057%=      5-min Rain = 0
KGO1 151659Z 30005KT 06/M02 A3027 RMK A01 T00621022  RH  055%=      5-min Rain = 0
KGO1 151700Z 29006KT 06/M02 A3027 RMK A01 T00611022  RH  055%=      5-min Rain = 0
KGO1 151701Z 31007KT 06/M02 A3027 RMK A01 T00621022  RH  055%=      5-min Rain = 0
KGO1 151702Z 31005KT 06/M03 A3027 RMK A01 T00621027  RH  053%=      5-min Rain = 0
KGO1 151703Z 30005KT 06/M02 A3027 RMK A01 T00611024  RH  055%=      5-min Rain = 0
KGO1 151704Z 31007KT 06/M03 A3027 RMK A01 T00621025  RH  054%=      5-min Rain = 0
KGO1 151705Z 30006KT 06/M03 A3027 RMK A01 T00621028  RH  053%=      5-min Rain = 0
KGO1 151706Z 32004KT 06/M03 A3027 RMK A01 T00611032  RH  051%=      5-min Rain = 0
KGO1 151707Z 29004KT 06/M02 A3027 RMK A01 T00611021  RH  056%=      5-min Rain = 0
KGO1 151708Z 33005KT 06/M02 A3027 RMK A01 T00631018  RH  056%=      5-min Rain = 0
KGO1 151709Z 32003KT 06/M03 A3027 RMK A01 T00641027  RH  052%=      5-min Rain = 0
KGO1 151710Z 30004KT 06/M03 A3027 RMK A01 T00641026  RH  053%=      5-min Rain = 0
KGO1 151711Z 30007KT 07/M03 A3027 RMK A01 T00661028  RH  051%=      5-min Rain = 0
KGO1 151712Z 30006KT 07/M03 A3027 RMK A01 T00661032  RH  050%=      5-min Rain = 0
KGO1 151713Z 31006KT 07/M03 A3027 RMK A01 T00661028  RH  051%=      5-min Rain = 0
KGO1 151714Z 32006KT 07/M03 A3027 RMK A01 T00661026  RH  052%=      5-min Rain = 0
KGO1 151715Z 31006KT 07/M03 A3027 RMK A01 T00671028  RH  051%=      5-min Rain = 0
KGO1 151716Z 32007KT 07/M02 A3027 RMK A01 T00691023  RH  052%=      5-min Rain = 0
KGO1 151717Z 32007KT 07/M03 A3027 RMK A01 T00691033  RH  048%=      5-min Rain = 0
KGO1 151718Z 31007KT 07/M03 A3027 RMK A01 T00681033  RH  048%=      5-min Rain = 0
KGO1 151719Z 32005KT 07/M03 A3027 RMK A01 T00681026  RH  051%=      5-min Rain = 0
KGO1 151720Z 32006KT 07/M01 A3027 RMK A01 T00721014  RH  054%=      5-min Rain = 0
KGO1 151721Z 31006KT 08/M02 A3027 RMK A01 T00751021  RH  051%=      5-min Rain = 0
KGO1 151722Z 31006KT 07/M03 A3027 RMK A01 T00741027  RH  048%=      5-min Rain = 0
KGO1 151723Z 31005KT 07/M02 A3027 RMK A01 T00741024  RH  050%=      5-min Rain = 0
KGO1 151724Z 30006KT 07/M02 A3027 RMK A01 T00741019  RH  052%=      5-min Rain = 0
KGO1 151725Z 30006KT 08/M02 A3026 RMK A01 T00751022  RH  050%=      5-min Rain = 0
KGO1 151726Z 29007KT 08/M02 A3026 RMK A01 T00761022  RH  050%=      5-min Rain = 0
KGO1 151727Z 30005KT 08/M02 A3026 RMK A01 T00761020  RH  050%=      5-min Rain = 0
KGO1 151728Z 29005KT 08/M02 A3026 RMK A01 T00781020  RH  050%=      5-min Rain = 0
KGO1 151729Z 29005KT 08/M02 A3026 RMK A01 T00781024  RH  048%=      5-min Rain = 0
KGO1 151730Z 31006KT 08/M02 A3026 RMK A01 T00771022  RH  050%=      5-min Rain = 0
KGO1 151731Z 32003KT 08/M03 A3026 RMK A01 T00761027  RH  048%=      5-min Rain = 0
KGO1 151732Z 30006KT 08/M03 A3026 RMK A01 T00751025  RH  049%=      5-min Rain = 0
KGO1 151733Z 32007KT 08/M03 A3026 RMK A01 T00761031  RH  047%=      5-min Rain = 0
KGO1 151734Z 32007KT 08/M04 A3026 RMK A01 T00761035  RH  045%=      5-min Rain = 0
KGO1 151735Z 32008KT 08/M03 A3026 RMK A01 T00761029  RH  047%=      5-min Rain = 0
KGO1 151736Z 33007KT 08/M03 A3026 RMK A01 T00761029  RH  047%=      5-min Rain = 0
KGO1 151737Z 32006KT 08/M03 A3026 RMK A01 T00761027  RH  048%=      5-min Rain = 0
KGO1 151738Z 31009KT 08/M02 A3026 RMK A01 T00781021  RH  049%=      5-min Rain = 0
KGO1 151739Z 30007KT 08/M03 A3026 RMK A01 T00801027  RH  047%=      5-min Rain = 0
KGO1 151740Z 31004KT 08/M03 A3026 RMK A01 T00791034  RH  045%=      5-min Rain = 0
KGO1 151741Z 30005KT 08/M03 A3026 RMK A01 T00781027  RH  047%=      5-min Rain = 0
KGO1 151742Z 33007KT 08/M02 A3026 RMK A01 T00811024  RH  048%=      5-min Rain = 0
KGO1 151743Z 33004KT 08/M02 A3026 RMK A01 T00841021  RH  047%=      5-min Rain = 0
KGO1 151744Z 34005KT 09/M02 A3026 RMK A01 T00881019  RH  047%=      5-min Rain = 0
KGO1 151745Z 33007KT 09/M03 A3026 RMK A01 T00891027  RH  044%=      5-min Rain = 0
KGO1 151746Z 34008KT 09/M03 A3026 RMK A01 T00871028  RH  044%=      5-min Rain = 0
KGO1 151747Z 32007KT 09/M03 A3026 RMK A01 T00861027  RH  045%=      5-min Rain = 0
KGO1 151748Z 33005KT 09/M02 A3026 RMK A01 T00881020  RH  047%=      5-min Rain = 0
KGO1 151749Z 33007KT 09/M01 A3026 RMK A01 T00911014  RH  048%=      5-min Rain = 0
KGO1 151750Z 32007KT 09/M02 A3026 RMK A01 T00921022  RH  045%=      5-min Rain = 0
KGO1 151751Z 33006KT 09/M04 A3025 RMK A01 T00881035  RH  042%=      5-min Rain = 0
KGO1 151752Z 34006KT 08/M03 A3025 RMK A01 T00841032  RH  044%=      5-min Rain = 0
KGO1 151753Z 33007KT 08/M02 A3025 RMK A01 T00831023  RH  047%=      5-min Rain = 0
KGO1 151754Z 35006KT 09/M03 A3025 RMK A01 T00851029  RH  045%=      5-min Rain = 0
KGO1 151755Z 35005KT 08/M03 A3025 RMK A01 T00831031  RH  044%=      5-min Rain = 0
KGO1 151756Z 32007KT 08/M03 A3025 RMK A01 T00831029  RH  045%=      5-min Rain = 0
KGO1 151757Z 31008KT 08/M03 A3025 RMK A01 T00841029  RH  045%=      5-min Rain = 0
KGO1 151758Z 29007KT 09/M03 A3025 RMK A01 T00861026  RH  045%=      5-min Rain = 0
KGO1 151759Z 29005KT 09/M03 A3025 RMK A01 T00861030  RH  044%=      5-min Rain = 0
KGO1 151800Z 31004KT 09/M02 A3025 RMK A01 T00861024  RH  046%=      5-min Rain = 0
KGO1 151801Z 33007KT 09/M02 A3025 RMK A01 T00881023  RH  046%=      5-min Rain = 0
KGO1 151802Z 30006KT 09/M03 A3025 RMK A01 T00881026  RH  045%=      5-min Rain = 0
KGO1 151803Z 33010KT 09/M03 A3025 RMK A01 T00881025  RH  045%=      5-min Rain = 0
KGO1 151804Z 34008KT 09/M03 A3025 RMK A01 T00881026  RH  045%=      5-min Rain = 0
KGO1 151805Z 34007KT 08/M03 A3025 RMK A01 T00841033  RH  043%=      5-min Rain = 0
KGO1 151806Z 35005KT 08/M04 A3025 RMK A01 T00821036  RH  043%=      5-min Rain = 0
KGO1 151807Z 34008KT 08/M03 A3025 RMK A01 T00821028  RH  046%=      5-min Rain = 0
KGO1 151808Z 33008KT 08/M03 A3025 RMK A01 T00841027  RH  046%=      5-min Rain = 0
KGO1 151809Z 32006KT 08/M03 A3025 RMK A01 T00841031  RH  044%=      5-min Rain = 0
KGO1 151810Z 34004KT 08/M03 A3025 RMK A01 T00831026  RH  046%=      5-min Rain = 0
KGO1 151811Z 35004KT 09/M02 A3025 RMK A01 T00861021  RH  047%=      5-min Rain = 0
KGO1 151812Z 35007KT 09/M01 A3025 RMK A01 T00911014  RH  048%=      5-min Rain = 0
KGO1 151813Z 33006KT 09/M02 A3025 RMK A01 T00901024  RH  045%=      5-min Rain = 0
KGO1 151814Z 34007KT 09/M02 A3025 RMK A01 T00891022  RH  045%=      5-min Rain = 0
KGO1 151815Z 34006KT 09/M03 A3025 RMK A01 T00901026  RH  044%=      5-min Rain = 0
KGO1 151816Z 33007KT 09/M02 A3025 RMK A01 T00881021  RH  046%=      5-min Rain = 0
KGO1 151817Z 33010KT 09/M02 A3025 RMK A01 T00901020  RH  046%=      5-min Rain = 0
KGO1 151818Z 33008KT 09/M02 A3025 RMK A01 T00891023  RH  045%=      5-min Rain = 0
KGO1 151819Z 32005KT 09/M03 A3025 RMK A01 T00871027  RH  045%=      5-min Rain = 0
KGO1 151820Z 30005G10KT 09/M03 A3024 RMK A01 T00861029  RH  044%=      5-min Rain = 0
KGO1 151821Z 31007KT 09/M03 A3024 RMK A01 T00861027  RH  045%=      5-min Rain = 0
KGO1 151822Z 31006KT 09/M02 A3024 RMK A01 T00861023  RH  046%=      5-min Rain = 0
KGO1 151823Z 29007KT 09/M02 A3024 RMK A01 T00881022  RH  046%=      5-min Rain = 0
KGO1 151824Z 31008KT 09/M02 A3024 RMK A01 T00891024  RH  045%=      5-min Rain = 0
KGO1 151825Z 31008KT 09/M03 A3024 RMK A01 T00891028  RH  044%=      5-min Rain = 0
KGO1 151826Z 33007KT 09/M02 A3024 RMK A01 T00881024  RH  045%=      5-min Rain = 0
KGO1 151827Z 33008KT 09/M02 A3024 RMK A01 T00891023  RH  045%=      5-min Rain = 0
KGO1 151828Z 33008KT 09/M03 A3024 RMK A01 T00901026  RH  044%=      5-min Rain = 0
KGO1 151829Z 34009KT 09/M03 A3024 RMK A01 T00891026  RH  044%=      5-min Rain = 0
KGO1 151830Z 36007KT 09/M03 A3024 RMK A01 T00861026  RH  045%=      5-min Rain = 0
KGO1 151831Z 36006KT 09/M02 A3024 RMK A01 T00871024  RH  045%=      5-min Rain = 0
KGO1 151832Z 33004KT 09/M02 A3024 RMK A01 T00891022  RH  046%=      5-min Rain = 0
KGO1 151833Z 30005KT 09/M02 A3024 RMK A01 T00921021  RH  045%=      5-min Rain = 0
KGO1 151834Z 29005KT 09/M02 A3024 RMK A01 T00931019  RH  045%=      5-min Rain = 0
KGO1 151835Z 31006KT 10/M02 A3024 RMK A01 T00951019  RH  045%=      5-min Rain = 0
KGO1 151836Z 33009KT 10/M02 A3024 RMK A01 T00951019  RH  045%=      5-min Rain = 0
KGO1 151837Z 33008KT 10/M02 A3024 RMK A01 T00951020  RH  045%=      5-min Rain = 0
KGO1 151838Z 33007KT 09/M02 A3024 RMK A01 T00941021  RH  044%=      5-min Rain = 0
KGO1 151839Z 33004KT 09/M03 A3024 RMK A01 T00941026  RH  043%=      5-min Rain = 0
KGO1 151840Z 31006KT 09/M02 A3024 RMK A01 T00921024  RH  044%=      5-min Rain = 0
KGO1 151841Z 31008KT 09/M02 A3023 RMK A01 T00931017  RH  046%=      5-min Rain = 0
KGO1 151842Z 31005KT 10/M03 A3024 RMK A01 T00951025  RH  043%=      5-min Rain = 0
KGO1 151843Z 31006KT 09/M03 A3023 RMK A01 T00931026  RH  043%=      5-min Rain = 0
KGO1 151844Z 32008KT 09/M03 A3023 RMK A01 T00941027  RH  043%=      5-min Rain = 0
KGO1 151845Z 32008KT 10/M02 A3023 RMK A01 T00951023  RH  043%=      5-min Rain = 0
KGO1 151846Z 31008KT 10/M02 A3023 RMK A01 T00951021  RH  044%=      5-min Rain = 0
KGO1 151847Z 30005KT 10/M02 A3023 RMK A01 T00961019  RH  044%=      5-min Rain = 0
KGO1 151848Z 32004KT 10/M02 A3023 RMK A01 T00971024  RH  043%=      5-min Rain = 0
KGO1 151849Z 32008KT 10/M02 A3023 RMK A01 T00971023  RH  043%=      5-min Rain = 0
KGO1 151850Z 31008KT 10/M02 A3023 RMK A01 T00971022  RH  043%=      5-min Rain = 0
KGO1 151851Z 32008KT 10/M03 A3023 RMK A01 T00961026  RH  042%=      5-min Rain = 0
KGO1 151852Z 30006KT 09/M03 A3023 RMK A01 T00941026  RH  043%=      5-min Rain = 0
KGO1 151853Z 32004KT 09/M03 A3023 RMK A01 T00941025  RH  043%=      5-min Rain = 0
KGO1 151854Z 32003KT 10/M02 A3023 RMK A01 T00951021  RH  044%=      5-min Rain = 0
KGO1 151855Z 01006KT 10/M02 A3023 RMK A01 T00981016  RH  045%=      5-min Rain = 0
KGO1 151856Z 32007KT 10/M02 A3023 RMK A01 T01001020  RH  043%=      5-min Rain = 0
KGO1 151857Z 32007KT 10/M02 A3023 RMK A01 T01001024  RH  042%=      5-min Rain = 0
KGO1 151858Z 32005KT 10/M03 A3023 RMK A01 T00981027  RH  041%=      5-min Rain = 0
KGO1 151859Z 33004KT 10/M02 A3022 RMK A01 T00961024  RH  043%=      5-min Rain = 0
KGO1 151900Z 31007KT 10/M02 A3022 RMK A01 T00981021  RH  043%=      5-min Rain = 0
KGO1 151901Z 32006KT 10/M03 A3022 RMK A01 T00981028  RH  041%=      5-min Rain = 0
KGO1 151902Z 33004KT 10/M03 A3022 RMK A01 T00961026  RH  042%=      5-min Rain = 0
KGO1 151903Z 30004KT 10/M02 A3022 RMK A01 T00971020  RH  044%=      5-min Rain = 0
KGO1 151904Z 30004KT 10/M02 A3022 RMK A01 T01001021  RH  043%=      5-min Rain = 0
KGO1 151905Z 32005KT 10/M02 A3022 RMK A01 T01021020  RH  042%=      5-min Rain = 0
KGO1 151906Z 33007KT 10/M02 A3022 RMK A01 T01031016  RH  043%=      5-min Rain = 0
KGO1 151907Z 32010KT 11/M01 A3022 RMK A01 T01071011  RH  044%=      5-min Rain = 0
KGO1 151908Z 33008KT 11/M02 A3022 RMK A01 T01071020  RH  041%=      5-min Rain = 0
KGO1 151909Z 36007KT 11/M02 A3022 RMK A01 T01051022  RH  041%=      5-min Rain = 0
KGO1 151910Z 00005KT 10/M03 A3022 RMK A01 T01011029  RH  040%=      5-min Rain = 0
KGO1 151911Z 01004KT 10/M03 A3022 RMK A01 T00991027  RH  041%=      5-min Rain = 0
KGO1 151912Z 35006KT 10/M02 A3022 RMK A01 T01011021  RH  043%=      5-min Rain = 0
KGO1 151913Z 33002KT 10/M02 A3022 RMK A01 T01011022  RH  042%=      5-min Rain = 0
KGO1 151914Z 31006KT 10/M02 A3021 RMK A01 T01021016  RH  044%=      5-min Rain = 0
KGO1 151915Z 33009KT 10/M02 A3021 RMK A01 T01041019  RH  042%=      5-min Rain = 0
KGO1 151916Z 33007KT 11/M02 A3022 RMK A01 T01051020  RH  041%=      5-min Rain = 0
KGO1 151917Z 34005KT 10/M02 A3021 RMK A01 T01031024  RH  041%=      5-min Rain = 0
KGO1 151918Z 35004KT 10/M02 A3021 RMK A01 T01011022  RH  042%=      5-min Rain = 0
KGO1 151919Z 35003KT 10/M02 A3021 RMK A01 T01011024  RH  041%=      5-min Rain = 0
KGO1 151920Z 32005KT 10/M02 A3021 RMK A01 T01021016  RH  044%=      5-min Rain = 0
KGO1 151921Z 32004KT 11/M02 A3021 RMK A01 T01051015  RH  043%=      5-min Rain = 0
KGO1 151922Z 33001KT 11/M02 A3021 RMK A01 T01061021  RH  041%=      5-min Rain = 0
KGO1 151923Z 28004KT 11/M02 A3021 RMK A01 T01051021  RH  041%=      5-min Rain = 0
KGO1 151924Z 28002KT 11/M02 A3021 RMK A01 T01051021  RH  041%=      5-min Rain = 0
KGO1 151925Z 26004KT 11/M02 A3021 RMK A01 T01061018  RH  042%=      5-min Rain = 0
KGO1 151926Z 31005KT 11/M02 A3021 RMK A01 T01061018  RH  042%=      5-min Rain = 0
KGO1 151927Z 34004KT 11/M03 A3021 RMK A01 T01081026  RH  039%=      5-min Rain = 0
KGO1 151928Z 35005KT 11/M03 A3021 RMK A01 T01071030  RH  038%=      5-min Rain = 0
KGO1 151929Z 35006KT 11/M03 A3021 RMK A01 T01071025  RH  040%=      5-min Rain = 0
KGO1 151930Z 32007KT 11/M03 A3021 RMK A01 T01081026  RH  039%=      5-min Rain = 0
KGO1 151931Z 34008KT 11/M03 A3021 RMK A01 T01071027  RH  039%=      5-min Rain = 0
KGO1 151932Z 33008KT 11/M02 A3021 RMK A01 T01061023  RH  040%=      5-min Rain = 0
KGO1 151933Z 32005KT 11/M02 A3021 RMK A01 T01091024  RH  039%=      5-min Rain = 0
KGO1 151934Z 34005KT 11/M03 A3021 RMK A01 T01081025  RH  039%=      5-min Rain = 0
KGO1 151935Z 34006KT 11/M02 A3021 RMK A01 T01081021  RH  040%=      5-min Rain = 0
KGO1 151936Z 33006KT 11/M02 A3021 RMK A01 T01091021  RH  040%=      5-min Rain = 0
KGO1 151937Z 33005KT 11/M03 A302 RMK A01 T01091026  RH  039%=      5-min Rain = 0
KGO1 151938Z 32006KT 11/M02 A302 RMK A01 T01081021  RH  041%=      5-min Rain = 0
KGO1 151939Z 33004KT 11/M03 A302 RMK A01 T01091025  RH  039%=      5-min Rain = 0
KGO1 151940Z 32003KT 11/M03 A302 RMK A01 T01081026  RH  039%=      5-min Rain = 0
KGO1 151941Z 33006KT 11/M02 A302 RMK A01 T01081024  RH  039%=      5-min Rain = 0
KGO1 151942Z 34007KT 11/M03 A302 RMK A01 T01091031  RH  037%=      5-min Rain = 0
KGO1 151943Z 00010KT 11/M03 A302 RMK A01 T01101028  RH  038%=      5-min Rain = 0
KGO1 151944Z 35008KT 11/M03 A302 RMK A01 T01111034  RH  036%=      5-min Rain = 0
KGO1 151945Z 35007KT 11/M04 A302 RMK A01 T01101035  RH  036%=      5-min Rain = 0
KGO1 151946Z 34008KT 11/M03 A302 RMK A01 T01091030  RH  038%=      5-min Rain = 0
KGO1 151947Z 31008KT 11/M03 A302 RMK A01 T01101028  RH  038%=      5-min Rain = 0
KGO1 151948Z 33007KT 11/M03 A302 RMK A01 T01111031  RH  037%=      5-min Rain = 0
KGO1 151949Z 32007KT 11/M03 A302 RMK A01 T01121028  RH  038%=      5-min Rain = 0
KGO1 151950Z 32006KT 11/M03 A302 RMK A01 T01111031  RH  037%=      5-min Rain = 0
KGO1 151951Z 30004KT 11/M03 A302 RMK A01 T01111027  RH  038%=      5-min Rain = 0
KGO1 151952Z 32003KT 11/M03 A302 RMK A01 T01131033  RH  036%=      5-min Rain = 0
KGO1 151953Z 30003KT 11/M03 A302 RMK A01 T01121033  RH  036%=      5-min Rain = 0
KGO1 151954Z 30004KT 11/M03 A302 RMK A01 T01121032  RH  036%=      5-min Rain = 0
KGO1 151955Z 31007KT 11/M03 A302 RMK A01 T01131027  RH  037%=      5-min Rain = 0
KGO1 151956Z 32004KT 11/M03 A302 RMK A01 T01121029  RH  037%=      5-min Rain = 0
KGO1 151957Z 31005KT 11/M03 A302 RMK A01 T01101028  RH  038%=      5-min Rain = 0
KGO1 151958Z 32005KT 11/M02 A3019 RMK A01 T01121023  RH  039%=      5-min Rain = 0
KGO1 151959Z 31005KT 11/M02 A3019 RMK A01 T01141024  RH  038%=      5-min Rain = 0
KGO1 152000Z 30009KT 12/M02 A3019 RMK A01 T01161022  RH  038%=      5-min Rain = 0
KGO1 152001Z 32009KT 12/M02 A3019 RMK A01 T01191023  RH  037%=      5-min Rain = 0
KGO1 152002Z 33006KT 12/M02 A3019 RMK A01 T01181024  RH  037%=      5-min Rain = 0
KGO1 152003Z 33004KT 12/M03 A3019 RMK A01 T01151029  RH  036%=      5-min Rain = 0
KGO1 152004Z 35003KT 11/M03 A3019 RMK A01 T01141031  RH  036%=      5-min Rain = 0
KGO1 152005Z 03001KT 11/M03 A3019 RMK A01 T01121034  RH  036%=      5-min Rain = 0
KGO1 152006Z 33000KT 11/M04 A3019 RMK A01 T01091037  RH  036%=      5-min Rain = 0
KGO1 152007Z 33003KT 11/M03 A3019 RMK A01 T01091030  RH  038%=      5-min Rain = 0
KGO1 152008Z 00002KT 11/M03 A3019 RMK A01 T01101033  RH  037%=      5-min Rain = 0
KGO1 152009Z 00006KT 11/M03 A3019 RMK A01 T01111028  RH  038%=      5-min Rain = 0
KGO1 152010Z 35004KT 11/M03 A3019 RMK A01 T01131027  RH  038%=      5-min Rain = 0
KGO1 152011Z 31005KT 12/M02 A3019 RMK A01 T01151023  RH  038%=      5-min Rain = 0
KGO1 152012Z 32006KT 12/M03 A3019 RMK A01 T01191027  RH  036%=      5-min Rain = 0
KGO1 152013Z 33008KT 12/M03 A3019 RMK A01 T01181026  RH  037%=      5-min Rain = 0
KGO1 152014Z 31007KT 12/M02 A3019 RMK A01 T01171024  RH  037%=      5-min Rain = 0
KGO1 152015Z 30006KT 12/M03 A3019 RMK A01 T01181031  RH  035%=      5-min Rain = 0
KGO1 152016Z 32004KT 12/M03 A3019 RMK A01 T01161034  RH  035%=      5-min Rain = 0
KGO1 152017Z 30005KT 12/M03 A3019 RMK A01 T01151031  RH  036%=      5-min Rain = 0
KGO1 152018Z 30006KT 12/M03 A3019 RMK A01 T01151033  RH  035%=      5-min Rain = 0
KGO1 152019Z 30007KT 12/M03 A3018 RMK A01 T01151032  RH  036%=      5-min Rain = 0
KGO1 152020Z 30003KT 11/M04 A3019 RMK A01 T01141038  RH  034%=      5-min Rain = 0
KGO1 152021Z 29001KT 11/M04 A3018 RMK A01 T01121039  RH  034%=      5-min Rain = 0
KGO1 152022Z 28002KT 11/M04 A3018 RMK A01 T01111037  RH  035%=      5-min Rain = 0
KGO1 152023Z 29003KT 11/M03 A3018 RMK A01 T01131033  RH  036%=      5-min Rain = 0
KGO1 152024Z 28001KT 11/M04 A3018 RMK A01 T01121036  RH  035%=      5-min Rain = 0
KGO1 152025Z 20001KT 11/M03 A3018 RMK A01 T01121031  RH  037%=      5-min Rain = 0
KGO1 152026Z 28001KT 11/M03 A3018 RMK A01 T01131034  RH  036%=      5-min Rain = 0
KGO1 152027Z 30002KT 11/M03 A3018 RMK A01 T01141033  RH  036%=      5-min Rain = 0
KGO1 152028Z 32004KT 12/M03 A3018 RMK A01 T01151032  RH  036%=      5-min Rain = 0
KGO1 152029Z 30004KT 12/M04 A3018 RMK A01 T01151039  RH  034%=      5-min Rain = 0
KGO1 152030Z 03001KT 11/M04 A3018 RMK A01 T01131043  RH  033%=      5-min Rain = 0
KGO1 152031Z 07001KT 11/M04 A3018 RMK A01 T01131039  RH  034%=      5-min Rain = 0
KGO1 152032Z 27005KT 12/M04 A3018 RMK A01 T01151035  RH  035%=      5-min Rain = 0
KGO1 152033Z 27005KT 12/M04 A3018 RMK A01 T01161039  RH  034%=      5-min Rain = 0
KGO1 152034Z 29006KT 12/M04 A3018 RMK A01 T01161035  RH  035%=      5-min Rain = 0
KGO1 152035Z 32005KT 12/M04 A3018 RMK A01 T01171036  RH  034%=      5-min Rain = 0
KGO1 152036Z 34007KT 12/M03 A3018 RMK A01 T01181031  RH  035%=      5-min Rain = 0
KGO1 152037Z 33007KT 12/M03 A3018 RMK A01 T01191034  RH  034%=      5-min Rain = 0
KGO1 152038Z 33005KT 12/M04 A3018 RMK A01 T01161036  RH  034%=      5-min Rain = 0
KGO1 152039Z 32003KT 11/M04 A3018 RMK A01 T01141038  RH  034%=      5-min Rain = 0
KGO1 152040Z 29002KT 11/M04 A3018 RMK A01 T01121037  RH  035%=      5-min Rain = 0
KGO1 152041Z 33002KT 11/M04 A3017 RMK A01 T01131036  RH  035%=      5-min Rain = 0
KGO1 152042Z 03002KT 12/M03 A3017 RMK A01 T01161032  RH  035%=      5-min Rain = 0
KGO1 152043Z 06001KT 12/M03 A3017 RMK A01 T01191034  RH  034%=      5-min Rain = 0
KGO1 152044Z 12001KT 12/M03 A3017 RMK A01 T01211032  RH  034%=      5-min Rain = 0
KGO1 152045Z 16000KT 12/M04 A3017 RMK A01 T01231037  RH  033%=      5-min Rain = 0
KGO1 152046Z 30002KT 12/M04 A3017 RMK A01 T01221036  RH  033%=      5-min Rain = 0
KGO1 152047Z 33005KT 12/M04 A3017 RMK A01 T01231037  RH  032%=      5-min Rain = 0
KGO1 152048Z 33006KT 12/M04 A3017 RMK A01 T01231039  RH  032%=      5-min Rain = 0
KGO1 152049Z 33006KT 12/M04 A3017 RMK A01 T01201042  RH  032%=      5-min Rain = 0
KGO1 152050Z 32004KT 12/M04 A3017 RMK A01 T01191040  RH  033%=      5-min Rain = 0
KGO1 152051Z 32003KT 12/M04 A3017 RMK A01 T01191039  RH  033%=      5-min Rain = 0
KGO1 152052Z 32005KT 12/M04 A3017 RMK A01 T01201043  RH  032%=      5-min Rain = 0
KGO1 152053Z 30005KT 12/M04 A3017 RMK A01 T01191039  RH  033%=      5-min Rain = 0
KGO1 152054Z 31002KT 12/M04 A3017 RMK A01 T01211042  RH  032%=      5-min Rain = 0
KGO1 152055Z 29003KT 12/M04 A3017 RMK A01 T01211044  RH  031%=      5-min Rain = 0
KGO1 152056Z 31003KT 12/M04 A3017 RMK A01 T01211042  RH  032%=      5-min Rain = 0
KGO1 152057Z 31007KT 12/M04 A3017 RMK A01 T01201039  RH  033%=      5-min Rain = 0
KGO1 152058Z 31006KT 12/M04 A3017 RMK A01 T01201041  RH  032%=      5-min Rain = 0
KGO1 152059Z 29004KT 12/M04 A3017 RMK A01 T01191044  RH  032%=      5-min Rain = 0
KGO1 152100Z 31002KT 12/M04 A3017 RMK A01 T01171043  RH  032%=      5-min Rain = 0
KGO1 152101Z 33004KT 12/M04 A3017 RMK A01 T01181037  RH  034%=      5-min Rain = 0
KGO1 152102Z 36005KT 12/M04 A3016 RMK A01 T01211037  RH  033%=      5-min Rain = 0
KGO1 152103Z 00002KT 12/M04 A3016 RMK A01 T01201041  RH  032%=      5-min Rain = 0
KGO1 152104Z 27001KT 12/M04 A3016 RMK A01 T01191041  RH  032%=      5-min Rain = 0
KGO1 152105Z 32002KT 12/M04 A3016 RMK A01 T01191041  RH  032%=      5-min Rain = 0
KGO1 152106Z 33004KT 12/M04 A3016 RMK A01 T01201036  RH  033%=      5-min Rain = 0
KGO1 152107Z 32005KT 12/M04 A3016 RMK A01 T01211036  RH  033%=      5-min Rain = 0
KGO1 152108Z 30003KT 12/M04 A3016 RMK A01 T01211037  RH  033%=      5-min Rain = 0
KGO1 152109Z 30005KT 12/M04 A3016 RMK A01 T01211037  RH  033%=      5-min Rain = 0
KGO1 152110Z 30004KT 12/M04 A3016 RMK A01 T01211038  RH  033%=      5-min Rain = 0
KGO1 152111Z 28006KT 12/M04 A3016 RMK A01 T01201036  RH  033%=      5-min Rain = 0
KGO1 152112Z 27006KT 12/M04 A3016 RMK A01 T01221036  RH  033%=      5-min Rain = 0
KGO1 152113Z 30004KT 12/M04 A3016 RMK A01 T01221037  RH  033%=      5-min Rain = 0
KGO1 152114Z 30003KT 12/M03 A3016 RMK A01 T01231034  RH  033%=      5-min Rain = 0
KGO1 152115Z 30004KT 12/M03 A3016 RMK A01 T01241034  RH  033%=      5-min Rain = 0
KGO1 152116Z 28004KT 12/M03 A3016 RMK A01 T01241032  RH  034%=      5-min Rain = 0
KGO1 152117Z 28001KT 12/M03 A3016 RMK A01 T01231034  RH  033%=      5-min Rain = 0
KGO1 152118Z 35001KT 12/M04 A3016 RMK A01 T01221035  RH  033%=      5-min Rain = 0
KGO1 152119Z 34007KT 12/M03 A3016 RMK A01 T01231029  RH  034%=      5-min Rain = 0
KGO1 152120Z 35005KT 12/M03 A3016 RMK A01 T01231031  RH  034%=      5-min Rain = 0
KGO1 152121Z 34007KT 12/M03 A3016 RMK A01 T01211033  RH  034%=      5-min Rain = 0
KGO1 152122Z 32004KT 12/M03 A3016 RMK A01 T01211031  RH  035%=      5-min Rain = 0
KGO1 152123Z 28003KT 12/M03 A3016 RMK A01 T01221030  RH  034%=      5-min Rain = 0
KGO1 152124Z 26006KT 12/M03 A3016 RMK A01 T01241028  RH  034%=      5-min Rain = 0
KGO1 152125Z 24005KT 13/M03 A3016 RMK A01 T01251032  RH  033%=      5-min Rain = 0
KGO1 152126Z 25005KT 12/M03 A3016 RMK A01 T01241028  RH  034%=      5-min Rain = 0
KGO1 152127Z 24003KT 13/M03 A3015 RMK A01 T01251033  RH  033%=      5-min Rain = 0
KGO1 152128Z 24003KT 13/M03 A3015 RMK A01 T01251031  RH  034%=      5-min Rain = 0
KGO1 152129Z 24004KT 13/M03 A3015 RMK A01 T01261028  RH  034%=      5-min Rain = 0
KGO1 152130Z 25005KT 13/M03 A3015 RMK A01 T01261029  RH  034%=      5-min Rain = 0
KGO1 152131Z 26005KT 13/M03 A3015 RMK A01 T01261029  RH  034%=      5-min Rain = 0
KGO1 152132Z 22005KT 13/M03 A3015 RMK A01 T01251030  RH  034%=      5-min Rain = 0
KGO1 152133Z 26008KT 13/M02 A3015 RMK A01 T01261021  RH  036%=      5-min Rain = 0
KGO1 152134Z 34008G13KT 13/M02 A3015 RMK A01 T01281023  RH  035%=      5-min Rain = 0
KGO1 152135Z 31005KT 13/M03 A3015 RMK A01 T01291028  RH  034%=      5-min Rain = 0
KGO1 152136Z 33006KT 13/M03 A3015 RMK A01 T01291025  RH  034%=      5-min Rain = 0
KGO1 152137Z 34006KT 13/M03 A3015 RMK A01 T01291029  RH  033%=      5-min Rain = 0
KGO1 152138Z 34004KT 13/M03 A3015 RMK A01 T01271030  RH  033%=      5-min Rain = 0
KGO1 152139Z 33005KT 13/M03 A3015 RMK A01 T01261029  RH  034%=      5-min Rain = 0
KGO1 152140Z 34005KT 13/M03 A3015 RMK A01 T01261033  RH  033%=      5-min Rain = 0
KGO1 152141Z 35005KT 13/M03 A3015 RMK A01 T01251034  RH  033%=      5-min Rain = 0
KGO1 152142Z 35003KT 12/M04 A3015 RMK A01 T01231037  RH  032%=      5-min Rain = 0
KGO1 152143Z 31002KT 12/M03 A3015 RMK A01 T01221033  RH  034%=      5-min Rain = 0
KGO1 152144Z 25001KT 12/M03 A3015 RMK A01 T01241033  RH  033%=      5-min Rain = 0
KGO1 152145Z 19001KT 13/M03 A3015 RMK A01 T01261028  RH  034%=      5-min Rain = 0
KGO1 152146Z 21005KT 13/M03 A3015 RMK A01 T01291032  RH  033%=      5-min Rain = 0
KGO1 152147Z 25005KT 13/M03 A3015 RMK A01 T01271032  RH  033%=      5-min Rain = 0
KGO1 152148Z 26005KT 13/M03 A3015 RMK A01 T01271028  RH  034%=      5-min Rain = 0
KGO1 152149Z 26004KT 13/M03 A3015 RMK A01 T01281027  RH  034%=      5-min Rain = 0
KGO1 152150Z 25004KT 13/M03 A3015 RMK A01 T01291031  RH  033%=      5-min Rain = 0
KGO1 152151Z 28002KT 13/M03 A3015 RMK A01 T01281027  RH  034%=      5-min Rain = 0
KGO1 152152Z 31003KT 13/M03 A3015 RMK A01 T01281028  RH  034%=      5-min Rain = 0
KGO1 152153Z 33003KT 13/M03 A3015 RMK A01 T01301029  RH  033%=      5-min Rain = 0
KGO1 152154Z 34003KT 13/M03 A3015 RMK A01 T01311030  RH  033%=      5-min Rain = 0
KGO1 152155Z 36002KT 13/M03 A3015 RMK A01 T01291034  RH  032%=      5-min Rain = 0
KGO1 152156Z 34005KT 13/M03 A3015 RMK A01 T01281031  RH  033%=      5-min Rain = 0
KGO1 152157Z 29007KT 13/M03 A3015 RMK A01 T01281029  RH  033%=      5-min Rain = 0
KGO1 152158Z 28007KT 13/M02 A3015 RMK A01 T01291022  RH  035%=      5-min Rain = 0
KGO1 152159Z 28006KT 13/M03 A3015 RMK A01 T01311029  RH  033%=      5-min Rain = 0
KGO1 152200Z 27006KT 13/M03 A3015 RMK A01 T01301031  RH  032%=      5-min Rain = 0
KGO1 152201Z 31005KT 13/M03 A3015 RMK A01 T01291027  RH  034%=      5-min Rain = 0
KGO1 152202Z 31005KT 13/M03 A3014 RMK A01 T01301031  RH  032%=      5-min Rain = 0
KGO1 152203Z 31005KT 13/M03 A3014 RMK A01 T01291032  RH  033%=      5-min Rain = 0
KGO1 152204Z 29007KT 13/M03 A3014 RMK A01 T01281028  RH  034%=      5-min Rain = 0
KGO1 152205Z 27005KT 13/M03 A3014 RMK A01 T01291032  RH  033%=      5-min Rain = 0
KGO1 152206Z 27003KT 13/M03 A3014 RMK A01 T01281030  RH  033%=      5-min Rain = 0
KGO1 152207Z 24002KT 13/M03 A3014 RMK A01 T01271031  RH  033%=      5-min Rain = 0
KGO1 152208Z 24001KT 13/M03 A3014 RMK A01 T01291032  RH  032%=      5-min Rain = 0
KGO1 152209Z 34000KT 13/M03 A3014 RMK A01 T01301029  RH  033%=      5-min Rain = 0
KGO1 152210Z 33003KT 13/M03 A3014 RMK A01 T01311030  RH  033%=      5-min Rain = 0
KGO1 152211Z 32005KT 13/M03 A3014 RMK A01 T01301031  RH  032%=      5-min Rain = 0
KGO1 152212Z 30003KT 13/M03 A3014 RMK A01 T01301033  RH  032%=      5-min Rain = 0
KGO1 152213Z 30003KT 13/M04 A3014 RMK A01 T01291035  RH  032%=      5-min Rain = 0
KGO1 152214Z 29002KT 13/M03 A3014 RMK A01 T01271033  RH  033%=      5-min Rain = 0
KGO1 152215Z 26001KT 13/M03 A3014 RMK A01 T01271032  RH  033%=      5-min Rain = 0
KGO1 152216Z 19000KT 13/M04 A3014 RMK A01 T01281035  RH  032%=      5-min Rain = 0
KGO1 152217Z 24002KT 13/M03 A3014 RMK A01 T01281034  RH  032%=      5-min Rain = 0
KGO1 152218Z 21003KT 13/M03 A3014 RMK A01 T01291031  RH  033%=      5-min Rain = 0
KGO1 152219Z 21003KT 13/M03 A3013 RMK A01 T01301031  RH  032%=      5-min Rain = 0
KGO1 152220Z 20003KT 13/M03 A3013 RMK A01 T01301028  RH  033%=      5-min Rain = 0
KGO1 152221Z 21003KT 13/M03 A3013 RMK A01 T01311029  RH  033%=      5-min Rain = 0
KGO1 152222Z 21003KT 13/M03 A3013 RMK A01 T01311031  RH  032%=      5-min Rain = 0
KGO1 152223Z 22004KT 13/M03 A3013 RMK A01 T01301031  RH  033%=      5-min Rain = 0
KGO1 152224Z 22003KT 13/M03 A3013 RMK A01 T01291033  RH  032%=      5-min Rain = 0
KGO1 152225Z 23004KT 13/M03 A3013 RMK A01 T01291030  RH  033%=      5-min Rain = 0
KGO1 152226Z 22003KT 13/M03 A3013 RMK A01 T01301031  RH  033%=      5-min Rain = 0
KGO1 152227Z 20003KT 13/M03 A3013 RMK A01 T01311029  RH  033%=      5-min Rain = 0
KGO1 152228Z 17002KT 13/M03 A3013 RMK A01 T01311028  RH  033%=      5-min Rain = 0
KGO1 152229Z 22002KT 13/M03 A3013 RMK A01 T01321028  RH  033%=      5-min Rain = 0
KGO1 152230Z 19003KT 13/M03 A3013 RMK A01 T01331028  RH  033%=      5-min Rain = 0
KGO1 152231Z 21004KT 13/M03 A3013 RMK A01 T01321031  RH  032%=      5-min Rain = 0
KGO1 152232Z 25005KT 13/M02 A3013 RMK A01 T01321024  RH  034%=      5-min Rain = 0
KGO1 152233Z 25005KT 13/M03 A3013 RMK A01 T01321027  RH  033%=      5-min Rain = 0
KGO1 152234Z 24004KT 13/M03 A3013 RMK A01 T01321025  RH  033%=      5-min Rain = 0
KGO1 152235Z 23005KT 13/M03 A3013 RMK A01 T01321025  RH  033%=      5-min Rain = 0
KGO1 152236Z 23005KT 13/M03 A3013 RMK A01 T01311025  RH  034%=      5-min Rain = 0
KGO1 152237Z 22008KT 13/M02 A3013 RMK A01 T01321019  RH  035%=      5-min Rain = 0
KGO1 152238Z 23007KT 13/M02 A3013 RMK A01 T01321021  RH  035%=      5-min Rain = 0
KGO1 152239Z 22005KT 13/M02 A3013 RMK A01 T01311024  RH  034%=      5-min Rain = 0
KGO1 152240Z 23006KT 13/M02 A3013 RMK A01 T01301022  RH  035%=      5-min Rain = 0
KGO1 152241Z 22006KT 13/M03 A3013 RMK A01 T01301025  RH  034%=      5-min Rain = 0
KGO1 152242Z 22004KT 13/M03 A3013 RMK A01 T01291025  RH  034%=      5-min Rain = 0
KGO1 152243Z 23002KT 13/M03 A3013 RMK A01 T01291030  RH  033%=      5-min Rain = 0
KGO1 152244Z 23003KT 13/M03 A3013 RMK A01 T01301029  RH  033%=      5-min Rain = 0
KGO1 152245Z 20006KT 13/M02 A3012 RMK A01 T01311022  RH  034%=      5-min Rain = 0
KGO1 152246Z 21006KT 13/M03 A3012 RMK A01 T01311026  RH  033%=      5-min Rain = 0
KGO1 152247Z 21004KT 13/M03 A3012 RMK A01 T01301025  RH  034%=      5-min Rain = 0
KGO1 152248Z 22005KT 13/M03 A3012 RMK A01 T01301025  RH  034%=      5-min Rain = 0
KGO1 152249Z 25006KT 13/M02 A3012 RMK A01 T01301024  RH  034%=      5-min Rain = 0
KGO1 152250Z 26006KT 13/M02 A3012 RMK A01 T01311024  RH  034%=      5-min Rain = 0
KGO1 152251Z 24004KT 13/M03 A3012 RMK A01 T01301028  RH  033%=      5-min Rain = 0
KGO1 152252Z 24004KT 13/M02 A3012 RMK A01 T01301023  RH  034%=      5-min Rain = 0
KGO1 152253Z 25004KT 13/M03 A3012 RMK A01 T01311026  RH  034%=      5-min Rain = 0
KGO1 152254Z 25004KT 13/M03 A3012 RMK A01 T01311030  RH  033%=      5-min Rain = 0
KGO1 152255Z 25008KT 13/M02 A3012 RMK A01 T01311022  RH  035%=      5-min Rain = 0
KGO1 152256Z 24006KT 13/M02 A3012 RMK A01 T01321022  RH  034%=      5-min Rain = 0
KGO1 152257Z 26006KT 13/M02 A3012 RMK A01 T01311023  RH  034%=      5-min Rain = 0
KGO1 152258Z 27007KT 13/M02 A3012 RMK A01 T01301024  RH  034%=      5-min Rain = 0
KGO1 152259Z 26007KT 13/M03 A3012 RMK A01 T01291029  RH  033%=      5-min Rain = 0
KGO1 152300Z 25006KT 13/M03 A3012 RMK A01 T01281029  RH  033%=      5-min Rain = 0
KGO1 152301Z 25005KT 13/M03 A3012 RMK A01 T01281028  RH  034%=      5-min Rain = 0
KGO1 152302Z 26005KT 13/M03 A3012 RMK A01 T01271027  RH  034%=      5-min Rain = 0
KGO1 152303Z 26003KT 13/M03 A3012 RMK A01 T01271028  RH  034%=      5-min Rain = 0
KGO1 152304Z 28005KT 13/M03 A3012 RMK A01 T01271027  RH  034%=      5-min Rain = 0
KGO1 152305Z 27004KT 13/M03 A3012 RMK A01 T01281029  RH  033%=      5-min Rain = 0
KGO1 152306Z 27003KT 13/M03 A3012 RMK A01 T01281032  RH  033%=      5-min Rain = 0
KGO1 152307Z 28002KT 13/M03 A3012 RMK A01 T01281034  RH  032%=      5-min Rain = 0
KGO1 152308Z 27002KT 13/M03 A3012 RMK A01 T01281032  RH  033%=      5-min Rain = 0
KGO1 152309Z 25002KT 13/M03 A3012 RMK A01 T01281028  RH  034%=      5-min Rain = 0
KGO1 152310Z 25004KT 13/M03 A3012 RMK A01 T01291028  RH  034%=      5-min Rain = 0
KGO1 152311Z 25005KT 13/M02 A3012 RMK A01 T01291024  RH  035%=      5-min Rain = 0
KGO1 152312Z 24005KT 13/M02 A3012 RMK A01 T01301022  RH  035%=      5-min Rain = 0
KGO1 152313Z 24007KT 13/M02 A3012 RMK A01 T01291022  RH  035%=      5-min Rain = 0
KGO1 152314Z 24007KT 13/M02 A3012 RMK A01 T01281017  RH  037%=      5-min Rain = 0
KGO1 152315Z 24010KT 13/M01 A3012 RMK A01 T01281011  RH  038%=      5-min Rain = 0
KGO1 152316Z 24008KT 13/M01 A3012 RMK A01 T01271014  RH  038%=      5-min Rain = 0
KGO1 152317Z 25007KT 13/M01 A3012 RMK A01 T01261010  RH  039%=      5-min Rain = 0
KGO1 152318Z 25007KT 13/M01 A3012 RMK A01 T01261011  RH  039%=      5-min Rain = 0
KGO1 152319Z 25006KT 13/M01 A3012 RMK A01 T01261013  RH  038%=      5-min Rain = 0
KGO1 152320Z 25006KT 13/M01 A3012 RMK A01 T01261008  RH  040%=      5-min Rain = 0
KGO1 152321Z 24006KT 13/M01 A3012 RMK A01 T01261013  RH  038%=      5-min Rain = 0
KGO1 152322Z 24005KT 13/M02 A3012 RMK A01 T01261016  RH  037%=      5-min Rain = 0
KGO1 152323Z 24006KT 13/M02 A3012 RMK A01 T01261017  RH  037%=      5-min Rain = 0
KGO1 152324Z 24007KT 13/M02 A3012 RMK A01 T01261018  RH  037%=      5-min Rain = 0
KGO1 152325Z 25007KT 13/M02 A3012 RMK A01 T01251016  RH  037%=      5-min Rain = 0
KGO1 152326Z 25006KT 13/M02 A3012 RMK A01 T01251019  RH  037%=      5-min Rain = 0
KGO1 152327Z 25005KT 12/M02 A3012 RMK A01 T01241022  RH  036%=      5-min Rain = 0
KGO1 152328Z 25005KT 12/M02 A3012 RMK A01 T01241019  RH  037%=      5-min Rain = 0
KGO1 152329Z 23005KT 12/M02 A3012 RMK A01 T01241016  RH  038%=      5-min Rain = 0
KGO1 152330Z 27005KT 12/M02 A3012 RMK A01 T01241019  RH  037%=      5-min Rain = 0
KGO1 152331Z 27006KT 12/M02 A3012 RMK A01 T01241021  RH  036%=      5-min Rain = 0
KGO1 152332Z 27005KT 12/M02 A3012 RMK A01 T01241017  RH  038%=      5-min Rain = 0
KGO1 152333Z 26006KT 12/M01 A3012 RMK A01 T01231012  RH  039%=      5-min Rain = 0
KGO1 152334Z 26005KT 12/M01 A3012 RMK A01 T01231008  RH  040%=      5-min Rain = 0
KGO1 152335Z 26005KT 12/M01 A3012 RMK A01 T01231006  RH  041%=      5-min Rain = 0
KGO1 152336Z 25005KT 12/M01 A3012 RMK A01 T01231013  RH  039%=      5-min Rain = 0
KGO1 152337Z 25005KT 12/M01 A3012 RMK A01 T01231011  RH  040%=      5-min Rain = 0
KGO1 152338Z 25005KT 12/M01 A3012 RMK A01 T01231014  RH  039%=      5-min Rain = 0
KGO1 152339Z 24005KT 12/M01 A3012 RMK A01 T01231011  RH  040%=      5-min Rain = 0
KGO1 152340Z 24005KT 12/M01 A3012 RMK A01 T01221012  RH  039%=      5-min Rain = 0
KGO1 152341Z 25005KT 12/M01 A3012 RMK A01 T01221011  RH  040%=      5-min Rain = 0
KGO1 152342Z 25006KT 12/M01 A3012 RMK A01 T01211012  RH  040%=      5-min Rain = 0
KGO1 152343Z 25006KT 12/M01 A3012 RMK A01 T01211013  RH  039%=      5-min Rain = 0
KGO1 152344Z 26006KT 12/M01 A3012 RMK A01 T01201013  RH  039%=      5-min Rain = 0
KGO1 152345Z 26006KT 12/M02 A3012 RMK A01 T01201017  RH  039%=      5-min Rain = 0
KGO1 152346Z 24006KT 12/M02 A3012 RMK A01 T01191016  RH  039%=      5-min Rain = 0
KGO1 152347Z 24007KT 12/M01 A3012 RMK A01 T01191009  RH  041%=      5-min Rain = 0
KGO1 152348Z 24008KT 12/M01 A3011 RMK A01 T01181013  RH  040%=      5-min Rain = 0
KGO1 152349Z 25007KT 12/M01 A3011 RMK A01 T01181014  RH  040%=      5-min Rain = 0
KGO1 152350Z 25005KT 12/M01 A3011 RMK A01 T01171013  RH  040%=      5-min Rain = 0
KGO1 152351Z 25006KT 12/M01 A3011 RMK A01 T01171011  RH  041%=      5-min Rain = 0
KGO1 152352Z 25006KT 12/M01 A3011 RMK A01 T01161011  RH  041%=      5-min Rain = 0
KGO1 152353Z 25005KT 12/M01 A3011 RMK A01 T01161011  RH  041%=      5-min Rain = 0
KGO1 152354Z 25005KT 12/M01 A3011 RMK A01 T01151011  RH  041%=      5-min Rain = 0
KGO1 152355Z 25004KT 12/M01 A3011 RMK A01 T01151009  RH  042%=      5-min Rain = 0
KGO1 152356Z 26004KT 12/M01 A3011 RMK A01 T01151009  RH  042%=      5-min Rain = 0
KGO1 152357Z 26004KT 12/M01 A3011 RMK A01 T01151006  RH  043%=      5-min Rain = 0
KGO1 152358Z 26005KT 11/M01 A3011 RMK A01 T01141005  RH  044%=      5-min Rain = 0
KGO1 152359Z 26004KT 11/M01 A3011 RMK A01 T01131005  RH  044%=      5-min Rain = 0
KGO1 160000Z 26004KT 11/M00 A3011 RMK A01 T01131002  RH  045%=      5-min Rain = 0
KGO1 160001Z 26004KT 11/M01 A3011 RMK A01 T01121005  RH  044%=      5-min Rain = 0
KGO1 160002Z 26004KT 11/M01 A3011 RMK A01 T01121007  RH  044%=      5-min Rain = 0
KGO1 160003Z 26004KT 11/M01 A3011 RMK A01 T01111006  RH  044%=      5-min Rain = 0
KGO1 160004Z 26004KT 11/M00 A3011 RMK A01 T01101003  RH  046%=      5-min Rain = 0
KGO1 160005Z 25005KT 11/M01 A3011 RMK A01 T01091005  RH  045%=      5-min Rain = 0
KGO1 160006Z 25005KT 11/M00 A3011 RMK A01 T01081004  RH  046%=      5-min Rain = 0
KGO1 160007Z 25005KT 11/M00 A3011 RMK A01 T01071002  RH  047%=      5-min Rain = 0
KGO1 160008Z 25004KT 11/00 A3011 RMK A01 T010500-0  RH  048%=      5-min Rain = 0
KGO1 160009Z 25004KT 10/00 A3011 RMK A01 T01040002  RH  049%=      5-min Rain = 0
KGO1 160010Z 25004KT 10/00 A3011 RMK A01 T01030003  RH  050%=      5-min Rain = 0
KGO1 160011Z 25005KT 10/01 A3011 RMK A01 T01010006  RH  052%=      5-min Rain = 0
KGO1 160012Z 24005KT 10/01 A3011 RMK A01 T01000005  RH  051%=      5-min Rain = 0
KGO1 160013Z 24005KT 10/00 A3011 RMK A01 T010000-0  RH  050%=      5-min Rain = 0
KGO1 160014Z 24005KT 10/M00 A3011 RMK A01 T00991003  RH  049%=      5-min Rain = 0
KGO1 160015Z 24005KT 10/M00 A3011 RMK A01 T00981003  RH  049%=      5-min Rain = 0
KGO1 160016Z 24004KT 10/M00 A3011 RMK A01 T00971002  RH  050%=      5-min Rain = 0
KGO1 160017Z 24004KT 10/M00 A3011 RMK A01 T00961001  RH  051%=      5-min Rain = 0
KGO1 160018Z 23004KT 10/M00 A3011 RMK A01 T00961004  RH  050%=      5-min Rain = 0
KGO1 160019Z 23004KT 10/M01 A3011 RMK A01 T00961010  RH  048%=      5-min Rain = 0
KGO1 160020Z 23004KT 10/M01 A3011 RMK A01 T00961014  RH  046%=      5-min Rain = 0
KGO1 160021Z 23004KT 10/M01 A3011 RMK A01 T00971014  RH  046%=      5-min Rain = 0
KGO1 160022Z 23004KT 10/M01 A3011 RMK A01 T00981008  RH  048%=      5-min Rain = 0
KGO1 160023Z 23004KT 10/M00 A3011 RMK A01 T00971003  RH  050%=      5-min Rain = 0
KGO1 160024Z 22003KT 10/M00 A3011 RMK A01 T00951004  RH  050%=      5-min Rain = 0
KGO1 160025Z 23004KT 09/M01 A3011 RMK A01 T00941008  RH  049%=      5-min Rain = 0
KGO1 160026Z 23003KT 09/M01 A3011 RMK A01 T00941014  RH  047%=      5-min Rain = 0
KGO1 160027Z 22004KT 09/M02 A3011 RMK A01 T00941016  RH  046%=      5-min Rain = 0
KGO1 160028Z 23004KT 09/M02 A3011 RMK A01 T00941015  RH  047%=      5-min Rain = 0
KGO1 160029Z 23004KT 09/M01 A3011 RMK A01 T00941014  RH  047%=      5-min Rain = 0
KGO1 160030Z 23004KT 09/M01 A3011 RMK A01 T00931013  RH  047%=      5-min Rain = 0
KGO1 160031Z 22004KT 09/M01 A3011 RMK A01 T00931013  RH  047%=      5-min Rain = 0
KGO1 160032Z 22004KT 09/M01 A3011 RMK A01 T00921014  RH  047%=      5-min Rain = 0
KGO1 160033Z 22004KT 09/M01 A3011 RMK A01 T00921014  RH  048%=      5-min Rain = 0
KGO1 160034Z 22004KT 09/M01 A3011 RMK A01 T00921014  RH  047%=      5-min Rain = 0
KGO1 160035Z 22004KT 09/M02 A3011 RMK A01 T00911017  RH  047%=      5-min Rain = 0
KGO1 160036Z 22004KT 09/M01 A3011 RMK A01 T00911013  RH  048%=      5-min Rain = 0
KGO1 160037Z 22004KT 09/M01 A3011 RMK A01 T00891010  RH  050%=      5-min Rain = 0
KGO1 160038Z 22005KT 09/M01 A3011 RMK A01 T00871014  RH  049%=      5-min Rain = 0
KGO1 160039Z 22004KT 09/M01 A3011 RMK A01 T00871011  RH  050%=      5-min Rain = 0
KGO1 160040Z 21004KT 08/M01 A3011 RMK A01 T00831007  RH  053%=      5-min Rain = 0
KGO1 160041Z 20005KT 08/M01 A3011 RMK A01 T00801011  RH  052%=      5-min Rain = 0
KGO1 160042Z 21005KT 08/M01 A3011 RMK A01 T00801011  RH  053%=      5-min Rain = 0
KGO1 160043Z 21005KT 08/M01 A3011 RMK A01 T00801013  RH  052%=      5-min Rain = 0
KGO1 160044Z 21004KT 08/M02 A3011 RMK A01 T00801018  RH  050%=      5-min Rain = 0
KGO1 160045Z 21004KT 08/M02 A3011 RMK A01 T00801019  RH  049%=      5-min Rain = 0
KGO1 160046Z 21004KT 08/M02 A3011 RMK A01 T00801018  RH  050%=      5-min Rain = 0
KGO1 160047Z 21005KT 08/M02 A3011 RMK A01 T00801016  RH  051%=      5-min Rain = 0
KGO1 160048Z 22005KT 08/M02 A3011 RMK A01 T00791015  RH  052%=      5-min Rain = 0
KGO1 160049Z 22005KT 08/M01 A3011 RMK A01 T00751013  RH  054%=      5-min Rain = 0
KGO1 160050Z 21005KT 07/M01 A3011 RMK A01 T00711014  RH  055%=      5-min Rain = 0
KGO1 160051Z 21005KT 07/M01 A3011 RMK A01 T00701012  RH  056%=      5-min Rain = 0
KGO1 160052Z 21005KT 07/M01 A3011 RMK A01 T00691010  RH  058%=      5-min Rain = 0
KGO1 160053Z 21005KT 07/M01 A3011 RMK A01 T00671010  RH  058%=      5-min Rain = 0
KGO1 160054Z 21005KT 07/M01 A3011 RMK A01 T00661010  RH  058%=      5-min Rain = 0
KGO1 160055Z 20006KT 07/M01 A3011 RMK A01 T00661011  RH  058%=      5-min Rain = 0
KGO1 160056Z 20005KT 07/M01 A3011 RMK A01 T00651006  RH  060%=      5-min Rain = 0
KGO1 160057Z 20006KT 06/M01 A3011 RMK A01 T00621005  RH  062%=      5-min Rain = 0
KGO1 160058Z 20006KT 06/M01 A3011 RMK A01 T00611007  RH  062%=      5-min Rain = 0
KGO1 160059Z 20006KT 06/M01 A3011 RMK A01 T00601009  RH  061%=      5-min Rain = 0
KGO1 160100Z 20006KT 06/M01 A3011 RMK A01 T00611011  RH  060%=      5-min Rain = 0
KGO1 160101Z 19006KT 06/M01 A3011 RMK A01 T00621011  RH  060%=      5-min Rain = 0
KGO1 160102Z 20005KT 06/M01 A3011 RMK A01 T00641009  RH  060%=      5-min Rain = 0
KGO1 160103Z 20005KT 06/M01 A3011 RMK A01 T00641005  RH  061%=      5-min Rain = 0
KGO1 160104Z 20005KT 06/M01 A3011 RMK A01 T00631008  RH  060%=      5-min Rain = 0
KGO1 160105Z 19005KT 06/M01 A3011 RMK A01 T00631008  RH  060%=      5-min Rain = 0
KGO1 160106Z 19004KT 06/M01 A3011 RMK A01 T00631007  RH  061%=      5-min Rain = 0
KGO1 160107Z 19004KT 06/M01 A3011 RMK A01 T00621008  RH  061%=      5-min Rain = 0
KGO1 160108Z 19004KT 06/M01 A3011 RMK A01 T00631011  RH  059%=      5-min Rain = 0
KGO1 160109Z 19004KT 07/M01 A3011 RMK A01 T00651012  RH  058%=      5-min Rain = 0
KGO1 160110Z 20004KT 07/M01 A3011 RMK A01 T00661013  RH  057%=      5-min Rain = 0
KGO1 160111Z 20004KT 07/M01 A3011 RMK A01 T00681014  RH  056%=      5-min Rain = 0
KGO1 160112Z 20004KT 07/M01 A3011 RMK A01 T00691014  RH  056%=      5-min Rain = 0
KGO1 160113Z 20004KT 07/M01 A3011 RMK A01 T00691014  RH  056%=      5-min Rain = 0
KGO1 160114Z 20004KT 07/M01 A3011 RMK A01 T00701014  RH  055%=      5-min Rain = 0
KGO1 160115Z 20004KT 07/M01 A3011 RMK A01 T00701014  RH  055%=      5-min Rain = 0
KGO1 160116Z 20005KT 07/M01 A3011 RMK A01 T00691013  RH  056%=      5-min Rain = 0
KGO1 160117Z 20004KT 07/M01 A3011 RMK A01 T00681012  RH  057%=      5-min Rain = 0
KGO1 160118Z 20004KT 07/M01 A3011 RMK A01 T00671010  RH  058%=      5-min Rain = 0
KGO1 160119Z 21004KT 07/M01 A3011 RMK A01 T00661013  RH  057%=      5-min Rain = 0
KGO1 160120Z 20004KT 07/M01 A3011 RMK A01 T00671014  RH  056%=      5-min Rain = 0
KGO1 160121Z 20004KT 07/M02 A3011 RMK A01 T00681015  RH  056%=      5-min Rain = 0
KGO1 160122Z 20004KT 07/M02 A3011 RMK A01 T00691015  RH  055%=      5-min Rain = 0
KGO1 160123Z 20004KT 07/M01 A3011 RMK A01 T00701012  RH  056%=      5-min Rain = 0
KGO1 160124Z 20004KT 07/M01 A3011 RMK A01 T00691013  RH  056%=      5-min Rain = 0
KGO1 160125Z 20003KT 07/M02 A3011 RMK A01 T00681015  RH  055%=      5-min Rain = 0
KGO1 160126Z 20003KT 07/M02 A3011 RMK A01 T00681016  RH  055%=      5-min Rain = 0
KGO1 160127Z 20003KT 07/M02 A3011 RMK A01 T00681016  RH  055%=      5-min Rain = 0
KGO1 160128Z 20004KT 07/M02 A3011 RMK A01 T00691018  RH  054%=      5-min Rain = 0
KGO1 160129Z 21004KT 07/M02 A3011 RMK A01 T00701018  RH  054%=      5-min Rain = 0
KGO1 160130Z 21004KT 07/M02 A3011 RMK A01 T00701018  RH  053%=      5-min Rain = 0
KGO1 160131Z 21005KT 07/M02 A3011 RMK A01 T00711018  RH  053%=      5-min Rain = 0
KGO1 160132Z 21004KT 07/M02 A3011 RMK A01 T00711019  RH  053%=      5-min Rain = 0
KGO1 160133Z 20005KT 07/M02 A3011 RMK A01 T00711019  RH  053%=      5-min Rain = 0
KGO1 160134Z 20005KT 07/M02 A3011 RMK A01 T00711018  RH  053%=      5-min Rain = 0
KGO1 160135Z 20005KT 07/M02 A3011 RMK A01 T00701018  RH  053%=      5-min Rain = 0
KGO1 160136Z 20005KT 07/M02 A3011 RMK A01 T00711017  RH  054%=      5-min Rain = 0
KGO1 160137Z 20005KT 07/M02 A3011 RMK A01 T00711017  RH  054%=      5-min Rain = 0
KGO1 160138Z 20005KT 07/M02 A3011 RMK A01 T00701017  RH  054%=      5-min Rain = 0
KGO1 160139Z 20005KT 07/M02 A3011 RMK A01 T00701017  RH  054%=      5-min Rain = 0
KGO1 160140Z 20005KT 07/M02 A3011 RMK A01 T00691016  RH  054%=      5-min Rain = 0
KGO1 160141Z 20005KT 07/M02 A3011 RMK A01 T00681017  RH  055%=      5-min Rain = 0
KGO1 160142Z 20005KT 07/M02 A3011 RMK A01 T00681016  RH  055%=      5-min Rain = 0
KGO1 160143Z 20005KT 07/M02 A3011 RMK A01 T00681016  RH  055%=      5-min Rain = 0
KGO1 160144Z 20005KT 07/M02 A3011 RMK A01 T00671015  RH  056%=      5-min Rain = 0
KGO1 160145Z 20005KT 07/M02 A3011 RMK A01 T00661015  RH  056%=      5-min Rain = 0
KGO1 160146Z 20005KT 07/M01 A3011 RMK A01 T00651014  RH  057%=      5-min Rain = 0
KGO1 160147Z 20005KT 07/M01 A3011 RMK A01 T00651014  RH  057%=      5-min Rain = 0
KGO1 160148Z 20005KT 07/M01 A3011 RMK A01 T00651013  RH  057%=      5-min Rain = 0
KGO1 160149Z 20005KT 07/M01 A3011 RMK A01 T00651014  RH  057%=      5-min Rain = 0
KGO1 160150Z 20005KT 07/M01 A3011 RMK A01 T00651013  RH  057%=      5-min Rain = 0
KGO1 160151Z 20005KT 06/M01 A3011 RMK A01 T00641013  RH  058%=      5-min Rain = 0
KGO1 160152Z 20005KT 06/M01 A3011 RMK A01 T00641012  RH  058%=      5-min Rain = 0
KGO1 160153Z 20005KT 06/M01 A3011 RMK A01 T00631013  RH  058%=      5-min Rain = 0
KGO1 160154Z 20005KT 06/M01 A3011 RMK A01 T00631013  RH  058%=      5-min Rain = 0
KGO1 160155Z 20005KT 06/M01 A3011 RMK A01 T00631012  RH  059%=      5-min Rain = 0
KGO1 160156Z 20005KT 06/M01 A3011 RMK A01 T00621012  RH  059%=      5-min Rain = 0
KGO1 160157Z 20005KT 06/M01 A3011 RMK A01 T00611012  RH  060%=      5-min Rain = 0
KGO1 160158Z 20005KT 06/M01 A3011 RMK A01 T00601011  RH  060%=      5-min Rain = 0
KGO1 160159Z 20005KT 06/M01 A3011 RMK A01 T00591010  RH  062%=      5-min Rain = 0
KGO1 160200Z 20005KT 06/M01 A3012 RMK A01 T00571009  RH  063%=      5-min Rain = 0
KGO1 160201Z 20005KT 06/M01 A3012 RMK A01 T00551010  RH  063%=      5-min Rain = 0
KGO1 160202Z 20005KT 06/M01 A3012 RMK A01 T00551012  RH  062%=      5-min Rain = 0
KGO1 160203Z 20005KT 06/M01 A3012 RMK A01 T00551011  RH  062%=      5-min Rain = 0
KGO1 160204Z 20005KT 06/M01 A3012 RMK A01 T00551012  RH  062%=      5-min Rain = 0
KGO1 160205Z 20005KT 06/M01 A3012 RMK A01 T00561013  RH  061%=      5-min Rain = 0
KGO1 160206Z 20005KT 06/M01 A3012 RMK A01 T00571013  RH  061%=      5-min Rain = 0
KGO1 160207Z 20005KT 06/M01 A3012 RMK A01 T00571014  RH  060%=      5-min Rain = 0
KGO1 160208Z 20005KT 06/M01 A3012 RMK A01 T00581014  RH  060%=      5-min Rain = 0
KGO1 160209Z 20005KT 06/M01 A3012 RMK A01 T00581014  RH  060%=      5-min Rain = 0
KGO1 160210Z 20005KT 06/M02 A3012 RMK A01 T00581016  RH  059%=      5-min Rain = 0
KGO1 160211Z 20005KT 06/M02 A3012 RMK A01 T00591016  RH  059%=      5-min Rain = 0
KGO1 160212Z 20005KT 06/M02 A3012 RMK A01 T00591015  RH  059%=      5-min Rain = 0
KGO1 160213Z 20005KT 06/M02 A3012 RMK A01 T00591015  RH  059%=      5-min Rain = 0
KGO1 160214Z 20005KT 06/M02 A3012 RMK A01 T00591015  RH  059%=      5-min Rain = 0
KGO1 160215Z 20005KT 06/M02 A3012 RMK A01 T00581015  RH  060%=      5-min Rain = 0
KGO1 160216Z 20006KT 06/M02 A3012 RMK A01 T00561015  RH  061%=      5-min Rain = 0
KGO1 160217Z 20006KT 06/M01 A3012 RMK A01 T00551014  RH  061%=      5-min Rain = 0
KGO1 160218Z 20006KT 05/M01 A3012 RMK A01 T00531013  RH  062%=      5-min Rain = 0
KGO1 160219Z 20005KT 05/M01 A3012 RMK A01 T00521013  RH  063%=      5-min Rain = 0
KGO1 160220Z 20006KT 05/M01 A3012 RMK A01 T00511013  RH  063%=      5-min Rain = 0
KGO1 160221Z 20006KT 05/M01 A3012 RMK A01 T00511013  RH  063%=      5-min Rain = 0
KGO1 160222Z 20006KT 05/M01 A3012 RMK A01 T00501012  RH  064%=      5-min Rain = 0
KGO1 160223Z 20006KT 05/M01 A3012 RMK A01 T00501012  RH  064%=      5-min Rain = 0
KGO1 160224Z 20006KT 05/M01 A3012 RMK A01 T00501012  RH  064%=      5-min Rain = 0
KGO1 160225Z 19006KT 05/M01 A3012 RMK A01 T00491011  RH  065%=      5-min Rain = 0
KGO1 160226Z 19006KT 05/M01 A3012 RMK A01 T00471009  RH  067%=      5-min Rain = 0
KGO1 160227Z 19006KT 05/M01 A3012 RMK A01 T00461007  RH  068%=      5-min Rain = 0
KGO1 160228Z 19006KT 04/M01 A3012 RMK A01 T00441006  RH  070%=      5-min Rain = 0
KGO1 160229Z 19006KT 04/M01 A3012 RMK A01 T00431005  RH  071%=      5-min Rain = 0
KGO1 160230Z 18006KT 04/M01 A3012 RMK A01 T00411006  RH  071%=      5-min Rain = 0
KGO1 160231Z 19006KT 04/M01 A3012 RMK A01 T00391007  RH  072%=      5-min Rain = 0
KGO1 160232Z 19006KT 04/M01 A3012 RMK A01 T00401007  RH  072%=      5-min Rain = 0
KGO1 160233Z 18006KT 04/M01 A3012 RMK A01 T00401009  RH  070%=      5-min Rain = 0
KGO1 160234Z 18006KT 04/M01 A3012 RMK A01 T00391010  RH  070%=      5-min Rain = 0
KGO1 160235Z 18007KT 04/M01 A3012 RMK A01 T00381010  RH  071%=      5-min Rain = 0
KGO1 160236Z 18006KT 04/M01 A3012 RMK A01 T00371009  RH  072%=      5-min Rain = 0
KGO1 160237Z 18006KT 04/M01 A3012 RMK A01 T00361008  RH  073%=      5-min Rain = 0
KGO1 160238Z 18006KT 04/M01 A3012 RMK A01 T00371009  RH  072%=      5-min Rain = 0
KGO1 160239Z 19006KT 04/M01 A3012 RMK A01 T00381009  RH  071%=      5-min Rain = 0
KGO1 160240Z 19006KT 04/M01 A3012 RMK A01 T00391009  RH  071%=      5-min Rain = 0
KGO1 160241Z 19006KT 04/M01 A3012 RMK A01 T00401009  RH  071%=      5-min Rain = 0
KGO1 160242Z 18006KT 04/M01 A3012 RMK A01 T00411008  RH  071%=      5-min Rain = 0
KGO1 160243Z 18006KT 04/M01 A3012 RMK A01 T00411007  RH  071%=      5-min Rain = 0
KGO1 160244Z 18006KT 04/M01 A3012 RMK A01 T00411007  RH  071%=      5-min Rain = 0
KGO1 160245Z 18006KT 04/M01 A3012 RMK A01 T00411008  RH  070%=      5-min Rain = 0
KGO1 160246Z 18006KT 04/M01 A3012 RMK A01 T00411008  RH  070%=      5-min Rain = 0
KGO1 160247Z 18006KT 04/M01 A3012 RMK A01 T00411009  RH  070%=      5-min Rain = 0
KGO1 160248Z 18006KT 04/M01 A3012 RMK A01 T00401009  RH  070%=      5-min Rain = 0
KGO1 160249Z 18006KT 04/M01 A3012 RMK A01 T00391009  RH  071%=      5-min Rain = 0
KGO1 160250Z 18006KT 04/M01 A3012 RMK A01 T00381009  RH  071%=      5-min Rain = 0
KGO1 160251Z 18006KT 04/M01 A3012 RMK A01 T00381009  RH  071%=      5-min Rain = 0
KGO1 160252Z 18006KT 04/M01 A3012 RMK A01 T00381009  RH  071%=      5-min Rain = 0
KGO1 160253Z 18006KT 04/M01 A3012 RMK A01 T00381009  RH  071%=      5-min Rain = 0
KGO1 160254Z 18006KT 04/M01 A3012 RMK A01 T00381010  RH  071%=      5-min Rain = 0
KGO1 160255Z 18006KT 04/M01 A3012 RMK A01 T00381010  RH  071%=      5-min Rain = 0
KGO1 160256Z 19005KT 04/M01 A3012 RMK A01 T00381010  RH  071%=      5-min Rain = 0
KGO1 160257Z 19006KT 04/M01 A3012 RMK A01 T00391009  RH  071%=      5-min Rain = 0
KGO1 160258Z 19006KT 04/M01 A3012 RMK A01 T00391009  RH  071%=      5-min Rain = 0
KGO1 160259Z 19006KT 04/M01 A3012 RMK A01 T00391009  RH  071%=      5-min Rain = 0
KGO1 160300Z 19006KT 04/M01 A3012 RMK A01 T00381010  RH  071%=      5-min Rain = 0
KGO1 160301Z 19007KT 04/M01 A3012 RMK A01 T00371011  RH  071%=      5-min Rain = 0
KGO1 160302Z 19007KT 04/M01 A3012 RMK A01 T00371011  RH  071%=      5-min Rain = 0
KGO1 160303Z 19007KT 04/M01 A3012 RMK A01 T00361011  RH  072%=      5-min Rain = 0
KGO1 160304Z 19007KT 04/M01 A3012 RMK A01 T00351011  RH  072%=      5-min Rain = 0
KGO1 160305Z 19007KT 04/M01 A3012 RMK A01 T00351010  RH  073%=      5-min Rain = 0
KGO1 160306Z 20007KT 03/M01 A3012 RMK A01 T00341009  RH  073%=      5-min Rain = 0
KGO1 160307Z 20007KT 03/M01 A3012 RMK A01 T00341009  RH  073%=      5-min Rain = 0
KGO1 160308Z 20007KT 03/M01 A3012 RMK A01 T00331009  RH  074%=      5-min Rain = 0
KGO1 160309Z 20007KT 03/M01 A3012 RMK A01 T00331009  RH  074%=      5-min Rain = 0
KGO1 160310Z 20007KT 03/M01 A3012 RMK A01 T00321009  RH  075%=      5-min Rain = 0
KGO1 160311Z 20006KT 03/M01 A3012 RMK A01 T00321008  RH  075%=      5-min Rain = 0
KGO1 160312Z 20006KT 03/M01 A3012 RMK A01 T00321008  RH  075%=      5-min Rain = 0
KGO1 160313Z 19006KT 03/M01 A3012 RMK A01 T00321008  RH  075%=      5-min Rain = 0
KGO1 160314Z 19006KT 03/M01 A3012 RMK A01 T00331008  RH  075%=      5-min Rain = 0
KGO1 160315Z 19007KT 03/M01 A3012 RMK A01 T00331008  RH  074%=      5-min Rain = 0
KGO1 160316Z 19007KT 03/M01 A3012 RMK A01 T00341008  RH  074%=      5-min Rain = 0
KGO1 160317Z 19007KT 03/M01 A3012 RMK A01 T00341009  RH  074%=      5-min Rain = 0
KGO1 160318Z 19007KT 03/M01 A3012 RMK A01 T00341009  RH  073%=      5-min Rain = 0
KGO1 160319Z 19007KT 03/M01 A3012 RMK A01 T00331010  RH  073%=      5-min Rain = 0
KGO1 160320Z 19007KT 03/M01 A3012 RMK A01 T00321012  RH  073%=      5-min Rain = 0
KGO1 160321Z 19007KT 03/M01 A3012 RMK A01 T00311012  RH  073%=      5-min Rain = 0
KGO1 160322Z 19007KT 03/M01 A3012 RMK A01 T00311012  RH  073%=      5-min Rain = 0
KGO1 160323Z 19007KT 03/M01 A3012 RMK A01 T00311012  RH  073%=      5-min Rain = 0
KGO1 160324Z 20007KT 03/M01 A3012 RMK A01 T00321011  RH  073%=      5-min Rain = 0
KGO1 160325Z 20007KT 03/M01 A3012 RMK A01 T00321012  RH  073%=      5-min Rain = 0
KGO1 160326Z 20007KT 03/M01 A3012 RMK A01 T00341011  RH  072%=      5-min Rain = 0
KGO1 160327Z 20007KT 04/M01 A3012 RMK A01 T00361012  RH  071%=      5-min Rain = 0
KGO1 160328Z 20007KT 04/M01 A3012 RMK A01 T00371012  RH  070%=      5-min Rain = 0
KGO1 160329Z 20007KT 04/M01 A3012 RMK A01 T00381013  RH  070%=      5-min Rain = 0
KGO1 160330Z 20007KT 04/M01 A3012 RMK A01 T00391013  RH  069%=      5-min Rain = 0
KGO1 160331Z 20007KT 04/M01 A3012 RMK A01 T00381013  RH  069%=      5-min Rain = 0
KGO1 160332Z 20007KT 04/M01 A3012 RMK A01 T00381013  RH  069%=      5-min Rain = 0
KGO1 160333Z 19007KT 04/M01 A3012 RMK A01 T00391013  RH  069%=      5-min Rain = 0
KGO1 160334Z 19007KT 04/M01 A3012 RMK A01 T00381012  RH  069%=      5-min Rain = 0
KGO1 160335Z 19007KT 04/M01 A3012 RMK A01 T00391012  RH  069%=      5-min Rain = 0
KGO1 160336Z 20007KT 04/M01 A3012 RMK A01 T00381013  RH  069%=      5-min Rain = 0
KGO1 160337Z 20007KT 04/M01 A3012 RMK A01 T00391013  RH  069%=      5-min Rain = 0
KGO1 160338Z 20007KT 04/M01 A3012 RMK A01 T00391014  RH  069%=      5-min Rain = 0
KGO1 160339Z 20007KT 04/M01 A3012 RMK A01 T00381014  RH  069%=      5-min Rain = 0
KGO1 160340Z 20007KT 04/M01 A3012 RMK A01 T00381013  RH  069%=      5-min Rain = 0
KGO1 160341Z 20007KT 04/M01 A3012 RMK A01 T00371014  RH  069%=      5-min Rain = 0
KGO1 160342Z 20007KT 04/M01 A3012 RMK A01 T00361014  RH  069%=      5-min Rain = 0
KGO1 160343Z 20007KT 04/M01 A3012 RMK A01 T00361014  RH  070%=      5-min Rain = 0
KGO1 160344Z 19007KT 03/M02 A3012 RMK A01 T00341015  RH  070%=      5-min Rain = 0
KGO1 160345Z 19007KT 03/M01 A3012 RMK A01 T00341014  RH  071%=      5-min Rain = 0
KGO1 160346Z 20007KT 03/M01 A3012 RMK A01 T00331014  RH  071%=      5-min Rain = 0
KGO1 160347Z 19007KT 03/M01 A3012 RMK A01 T00331013  RH  072%=      5-min Rain = 0
KGO1 160348Z 20007KT 03/M01 A3012 RMK A01 T00321013  RH  072%=      5-min Rain = 0
KGO1 160349Z 20007KT 03/M01 A3012 RMK A01 T00321012  RH  073%=      5-min Rain = 0
KGO1 160350Z 20007KT 03/M01 A3012 RMK A01 T00321013  RH  072%=      5-min Rain = 0
KGO1 160351Z 20007KT 03/M01 A3012 RMK A01 T00321013  RH  072%=      5-min Rain = 0
KGO1 160352Z 20007KT 03/M01 A3012 RMK A01 T00321014  RH  072%=      5-min Rain = 0
KGO1 160353Z 20007KT 03/M01 A3012 RMK A01 T00331013  RH  072%=      5-min Rain = 0
KGO1 160354Z 20008KT 03/M01 A3012 RMK A01 T00331013  RH  072%=      5-min Rain = 0
KGO1 160355Z 20008KT 03/M01 A3012 RMK A01 T00331013  RH  072%=      5-min Rain = 0
KGO1 160356Z 19008KT 03/M01 A3012 RMK A01 T00331013  RH  072%=      5-min Rain = 0
KGO1 160357Z 19008KT 03/M01 A3012 RMK A01 T00321013  RH  072%=      5-min Rain = 0
KGO1 160358Z 19008KT 03/M01 A3012 RMK A01 T00331013  RH  072%=      5-min Rain = 0
KGO1 160359Z 19008KT 03/M01 A3012 RMK A01 T00321013  RH  072%=      5-min Rain = 0
KGO1 160400Z 19008KT 03/M01 A3012 RMK A01 T00321013  RH  072%=      5-min Rain = 0
KGO1 160401Z 20008KT 03/M01 A3012 RMK A01 T00321013  RH  072%=      5-min Rain = 0
KGO1 160402Z 19008KT 03/M01 A3012 RMK A01 T00331013  RH  072%=      5-min Rain = 0
KGO1 160403Z 19008KT 03/M01 A3012 RMK A01 T00331013  RH  071%=      5-min Rain = 0
KGO1 160404Z 19008KT 03/M01 A3012 RMK A01 T00341013  RH  071%=      5-min Rain = 0
KGO1 160405Z 19008KT 03/M01 A3012 RMK A01 T00341013  RH  071%=      5-min Rain = 0
KGO1 160406Z 20008KT 04/M01 A3012 RMK A01 T00351014  RH  071%=      5-min Rain = 0
KGO1 160407Z 19008KT 04/M01 A3012 RMK A01 T00351014  RH  071%=      5-min Rain = 0
KGO1 160408Z 19008KT 04/M01 A3012 RMK A01 T00351013  RH  071%=      5-min Rain = 0
KGO1 160409Z 19008KT 03/M01 A3012 RMK A01 T00341013  RH  071%=      5-min Rain = 0
KGO1 160410Z 19008KT 03/M01 A3012 RMK A01 T00341014  RH  071%=      5-min Rain = 0
KGO1 160411Z 19008KT 03/M01 A3012 RMK A01 T00341014  RH  071%=      5-min Rain = 0
KGO1 160412Z 19008KT 03/M01 A3012 RMK A01 T00331014  RH  071%=      5-min Rain = 0
KGO1 160413Z 19008KT 03/M01 A3012 RMK A01 T00331014  RH  071%=      5-min Rain = 0
KGO1 160414Z 19008KT 03/M02 A3012 RMK A01 T00331015  RH  071%=      5-min Rain = 0
KGO1 160415Z 20007KT 03/M02 A3012 RMK A01 T00321015  RH  071%=      5-min Rain = 0
KGO1 160416Z 20007KT 03/M02 A3012 RMK A01 T00321015  RH  072%=      5-min Rain = 0
KGO1 160417Z 20007KT 03/M01 A3012 RMK A01 T00311014  RH  072%=      5-min Rain = 0
KGO1 160418Z 20007KT 03/M01 A3012 RMK A01 T00301014  RH  073%=      5-min Rain = 0
KGO1 160419Z 20007KT 03/M02 A3012 RMK A01 T00291015  RH  073%=      5-min Rain = 0
KGO1 160420Z 20007KT 03/M02 A3012 RMK A01 T00291015  RH  073%=      5-min Rain = 0
KGO1 160421Z 20007KT 03/M02 A3012 RMK A01 T00291015  RH  073%=      5-min Rain = 0
KGO1 160422Z 20007KT 03/M02 A3012 RMK A01 T00291015  RH  073%=      5-min Rain = 0
KGO1 160423Z 20007KT 03/M02 A3012 RMK A01 T00291016  RH  073%=      5-min Rain = 0
KGO1 160424Z 20007KT 03/M02 A3012 RMK A01 T00291016  RH  072%=      5-min Rain = 0
KGO1 160425Z 20007KT 03/M02 A3012 RMK A01 T00291016  RH  072%=      5-min Rain = 0
KGO1 160426Z 20007KT 03/M02 A3012 RMK A01 T00301015  RH  072%=      5-min Rain = 0
KGO1 160427Z 20007KT 03/M02 A3012 RMK A01 T00301016  RH  072%=      5-min Rain = 0
KGO1 160428Z 20007KT 03/M02 A3011 RMK A01 T00311016  RH  071%=      5-min Rain = 0
KGO1 160429Z 20007KT 03/M02 A3011 RMK A01 T00311016  RH  071%=      5-min Rain = 0
KGO1 160430Z 20007KT 03/M02 A3011 RMK A01 T00321017  RH  071%=      5-min Rain = 0
KGO1 160431Z 20007KT 03/M02 A3011 RMK A01 T00321016  RH  071%=      5-min Rain = 0
KGO1 160432Z 20007KT 03/M02 A3011 RMK A01 T00321016  RH  070%=      5-min Rain = 0
KGO1 160433Z 20007KT 03/M02 A3011 RMK A01 T00331016  RH  070%=      5-min Rain = 0
KGO1 160434Z 20007KT 03/M02 A3011 RMK A01 T00341017  RH  070%=      5-min Rain = 0
KGO1 160435Z 20007KT 03/M02 A3011 RMK A01 T00341017  RH  069%=      5-min Rain = 0
KGO1 160436Z 20007KT 04/M02 A3011 RMK A01 T00351017  RH  069%=      5-min Rain = 0
KGO1 160437Z 20007KT 04/M02 A3011 RMK A01 T00351017  RH  069%=      5-min Rain = 0
KGO1 160438Z 19007KT 04/M02 A3011 RMK A01 T00361016  RH  069%=      5-min Rain = 0
KGO1 160439Z 19007KT 04/M02 A3011 RMK A01 T00361017  RH  069%=      5-min Rain = 0
KGO1 160440Z 19007KT 04/M02 A3011 RMK A01 T00361017  RH  069%=      5-min Rain = 0
KGO1 160441Z 19007KT 04/M02 A3011 RMK A01 T00351017  RH  069%=      5-min Rain = 0
KGO1 160442Z 19007KT 04/M02 A3011 RMK A01 T00351017  RH  069%=      5-min Rain = 0
KGO1 160443Z 19007KT 04/M02 A3011 RMK A01 T00351017  RH  069%=      5-min Rain = 0
KGO1 160444Z 19007KT 03/M02 A3011 RMK A01 T00341017  RH  069%=      5-min Rain = 0
KGO1 160445Z 19007KT 03/M02 A3011 RMK A01 T00341017  RH  069%=      5-min Rain = 0
KGO1 160446Z 19007KT 03/M02 A3011 RMK A01 T00341017  RH  069%=      5-min Rain = 0
KGO1 160447Z 19007KT 03/M02 A3011 RMK A01 T00341016  RH  070%=      5-min Rain = 0
KGO1 160448Z 19007KT 03/M02 A3011 RMK A01 T00341016  RH  070%=      5-min Rain = 0
KGO1 160449Z 19007KT 03/M02 A3011 RMK A01 T00341016  RH  070%=      5-min Rain = 0
KGO1 160450Z 19007KT 03/M02 A3011 RMK A01 T00331016  RH  070%=      5-min Rain = 0
KGO1 160451Z 19007KT 03/M02 A3011 RMK A01 T00331017  RH  070%=      5-min Rain = 0
KGO1 160452Z 19007KT 03/M02 A3011 RMK A01 T00331016  RH  070%=      5-min Rain = 0
KGO1 160453Z 19007KT 03/M02 A3011 RMK A01 T00321016  RH  071%=      5-min Rain = 0
KGO1 160454Z 19007KT 03/M02 A3011 RMK A01 T00311016  RH  071%=      5-min Rain = 0
KGO1 160455Z 19007KT 03/M02 A3011 RMK A01 T00301017  RH  071%=      5-min Rain = 0
KGO1 160456Z 19007KT 03/M02 A3011 RMK A01 T00291017  RH  071%=      5-min Rain = 0
KGO1 160457Z 19007KT 03/M02 A3011 RMK A01 T00291017  RH  072%=      5-min Rain = 0
KGO1 160458Z 19007KT 03/M02 A3011 RMK A01 T00291017  RH  072%=      5-min Rain = 0
KGO1 160459Z 19007KT 03/M02 A3011 RMK A01 T00281017  RH  072%=      5-min Rain = 0
KGO1 160500Z 19006KT 03/M02 A3011 RMK A01 T00281016  RH  072%=      5-min Rain = 0
KGO1 160501Z 19006KT 03/M02 A3011 RMK A01 T00281016  RH  073%=      5-min Rain = 0
KGO1 160502Z 19006KT 03/M01 A3011 RMK A01 T00281014  RH  074%=      5-min Rain = 0
KGO1 160503Z 19006KT 03/M01 A3011 RMK A01 T00271014  RH  075%=      5-min Rain = 0
KGO1 160504Z 19006KT 03/M01 A3011 RMK A01 T00261013  RH  075%=      5-min Rain = 0
KGO1 160505Z 19006KT 03/M01 A3011 RMK A01 T00251013  RH  076%=      5-min Rain = 0
KGO1 160506Z 19006KT 03/M01 A3011 RMK A01 T00251014  RH  075%=      5-min Rain = 0
KGO1 160507Z 19006KT 03/M02 A3011 RMK A01 T00271015  RH  074%=      5-min Rain = 0
KGO1 160508Z 19006KT 03/M02 A3011 RMK A01 T00291016  RH  072%=      5-min Rain = 0
KGO1 160509Z 19006KT 03/M02 A3011 RMK A01 T00321016  RH  070%=      5-min Rain = 0
KGO1 160510Z 19005KT 04/M02 A3011 RMK A01 T00351017  RH  069%=      5-min Rain = 0
KGO1 160511Z 20006KT 04/M02 A3011 RMK A01 T00371018  RH  068%=      5-min Rain = 0
KGO1 160512Z 20006KT 04/M02 A301 RMK A01 T00381018  RH  067%=      5-min Rain = 0
KGO1 160513Z 20005KT 04/M02 A301 RMK A01 T00381018  RH  067%=      5-min Rain = 0
KGO1 160514Z 20006KT 04/M02 A301 RMK A01 T00371019  RH  067%=      5-min Rain = 0
KGO1 160515Z 20005KT 04/M02 A301 RMK A01 T00371019  RH  067%=      5-min Rain = 0
KGO1 160516Z 19005KT 04/M02 A301 RMK A01 T00361020  RH  067%=      5-min Rain = 0
KGO1 160517Z 20005KT 04/M02 A301 RMK A01 T00361020  RH  067%=      5-min Rain = 0
KGO1 160518Z 20005KT 04/M02 A301 RMK A01 T00351020  RH  068%=      5-min Rain = 0
KGO1 160519Z 19005KT 03/M02 A301 RMK A01 T00331020  RH  068%=      5-min Rain = 0
KGO1 160520Z 19005KT 03/M02 A301 RMK A01 T00331020  RH  068%=      5-min Rain = 0
KGO1 160521Z 19005KT 03/M02 A301 RMK A01 T00321020  RH  068%=      5-min Rain = 0
KGO1 160522Z 19005KT 03/M02 A301 RMK A01 T00321021  RH  068%=      5-min Rain = 0
KGO1 160523Z 19005KT 03/M02 A301 RMK A01 T00311020  RH  069%=      5-min Rain = 0
KGO1 160524Z 19005KT 03/M02 A301 RMK A01 T00291020  RH  070%=      5-min Rain = 0
KGO1 160525Z 19005KT 03/M02 A301 RMK A01 T00271021  RH  071%=      5-min Rain = 0
KGO1 160526Z 19005KT 03/M02 A301 RMK A01 T00251022  RH  071%=      5-min Rain = 0
KGO1 160527Z 19005KT 02/M02 A301 RMK A01 T00241023  RH  071%=      5-min Rain = 0
KGO1 160528Z 19005KT 02/M02 A301 RMK A01 T00231023  RH  072%=      5-min Rain = 0
KGO1 160529Z 19005KT 02/M02 A301 RMK A01 T00211023  RH  073%=      5-min Rain = 0
KGO1 160530Z 19005KT 02/M02 A301 RMK A01 T00211023  RH  073%=      5-min Rain = 0
KGO1 160531Z 19005KT 02/M02 A301 RMK A01 T00201022  RH  073%=      5-min Rain = 0
KGO1 160532Z 19005KT 02/M02 A301 RMK A01 T00201022  RH  074%=      5-min Rain = 0
KGO1 160533Z 20005KT 02/M02 A301 RMK A01 T00191022  RH  074%=      5-min Rain = 0
KGO1 160534Z 20005KT 02/M02 A301 RMK A01 T00181022  RH  075%=      5-min Rain = 0
KGO1 160535Z 20005KT 02/M02 A301 RMK A01 T00191022  RH  074%=      5-min Rain = 0
KGO1 160536Z 20005KT 02/M02 A301 RMK A01 T00201022  RH  074%=      5-min Rain = 0
KGO1 160537Z 21005KT 02/M02 A301 RMK A01 T00211021  RH  073%=      5-min Rain = 0
KGO1 160538Z 20005KT 02/M02 A301 RMK A01 T00221021  RH  073%=      5-min Rain = 0
KGO1 160539Z 20005KT 02/M02 A301 RMK A01 T00231021  RH  073%=      5-min Rain = 0
KGO1 160540Z 20005KT 02/M02 A301 RMK A01 T00241021  RH  072%=      5-min Rain = 0
KGO1 160541Z 20005KT 03/M02 A301 RMK A01 T00251021  RH  072%=      5-min Rain = 0
KGO1 160542Z 20005KT 03/M02 A301 RMK A01 T00261022  RH  071%=      5-min Rain = 0
KGO1 160543Z 20005KT 03/M02 A301 RMK A01 T00281022  RH  070%=      5-min Rain = 0
KGO1 160544Z 20005KT 03/M02 A301 RMK A01 T00321021  RH  068%=      5-min Rain = 0
KGO1 160545Z 20005KT 04/M02 A301 RMK A01 T00351022  RH  066%=      5-min Rain = 0
KGO1 160546Z 20005KT 04/M02 A301 RMK A01 T00381022  RH  065%=      5-min Rain = 0
KGO1 160547Z 20005KT 04/M02 A301 RMK A01 T00401021  RH  064%=      5-min Rain = 0
KGO1 160548Z 20004KT 04/M02 A301 RMK A01 T00431022  RH  063%=      5-min Rain = 0
KGO1 160549Z 20004KT 04/M02 A301 RMK A01 T00441022  RH  062%=      5-min Rain = 0
KGO1 160550Z 20004KT 05/M02 A301 RMK A01 T00461022  RH  061%=      5-min Rain = 0
KGO1 160551Z 19004KT 05/M02 A301 RMK A01 T00461023  RH  061%=      5-min Rain = 0
KGO1 160552Z 19004KT 05/M02 A3009 RMK A01 T00471023  RH  061%=      5-min Rain = 0
KGO1 160553Z 19004KT 05/M02 A3009 RMK A01 T00471023  RH  061%=      5-min Rain = 0
KGO1 160554Z 19004KT 05/M02 A301 RMK A01 T00471023  RH  061%=      5-min Rain = 0
KGO1 160555Z 19004KT 05/M02 A3009 RMK A01 T00471023  RH  061%=      5-min Rain = 0
KGO1 160556Z 19004KT 05/M02 A3009 RMK A01 T00461023  RH  061%=      5-min Rain = 0
KGO1 160557Z 19004KT 05/M02 A3009 RMK A01 T00451023  RH  061%=      5-min Rain = 0
KGO1 160558Z 19004KT 04/M02 A3009 RMK A01 T00421023  RH  063%=      5-min Rain = 0
KGO1 160559Z 19004KT 04/M02 A3009 RMK A01 T00411024  RH  063%=      5-min Rain = 0

Page generated in 0.1405 seconds.